CMA27S ZSPD-LFPG

Flight info

Callsign CMA27S
Flight time 13h 13m
Altitude 30100
Route PIK81D PIKAS G330 PIMOL A593 NIXEM/K0926S0980 A593 DALIM W157 BEKDO/K0919S0950 W157 VYK G212 SOTMU/K0911S0980 B339 ASILA A575 UPREK W28 LAGEB W66 GOVSA/K0893S1040 W66 NUKTI B215 FKG A368 SARIN/K0889F340 N161 ABDUN/K0891F360 N161 GASBI/N0484F360 N161 LEYLA N644 LAGAS DCT FOQUS DCT ROLIN DCT OLDUD DCT ODERO/N0472F380 DCT OPT DCT IRLOX DCT BALUX DCT BEGLA DCT LAMSI DCT ASPAT DCT VIBOM DCT IDOSA DCT TOLVU DCT RAPOR DCT VEDUS
Aircraft B77L/H-SDE1E2E3FGHIJ2J3J4J5M1RWXY/LB1D1

Departure

Time 2026-05-06 12:17
Airport Shanghai Pudong International Airport (ZSPD)

Arrival

Time 2026-05-07 01:30
Airport Charles de Gaulle International Airport (LFPG)
Time Latitude Longitude Altitude Speed Heading
2026-05-06 12:12 31.15167 121.78016 27 ft 0 kts 252°
2026-05-06 12:12 31.15171 121.78030 27 ft 2 kts 253°
2026-05-06 12:12 31.15176 121.78048 25 ft 2 kts 255°
2026-05-06 12:13 31.15180 121.78067 27 ft 2 kts 257°
2026-05-06 12:13 31.15183 121.78086 27 ft 2 kts 262°
2026-05-06 12:13 31.15184 121.78106 27 ft 2 kts 272°
2026-05-06 12:13 31.15181 121.78124 27 ft 2 kts 300°
2026-05-06 12:14 31.15170 121.78137 25 ft 2 kts 340°
2026-05-06 12:14 31.15165 121.78139 24 ft 0 kts 345°
2026-05-06 12:15 31.15212 121.78122 27 ft 17 kts 342°
2026-05-06 12:15 31.15328 121.78075 27 ft 18 kts 351°
2026-05-06 12:15 31.15415 121.78161 28 ft 18 kts 65°
2026-05-06 12:16 31.15444 121.78251 28 ft 18 kts 73°
2026-05-06 12:16 31.15235 121.78427 27 ft 71 kts 161°
2026-05-06 12:16 31.14793 121.78595 29 ft 129 kts 162°
2026-05-06 12:16 31.13244 121.79203 274 ft 199 kts 158°
2026-05-06 12:17 31.12425 121.79579 1083 ft 182 kts 158°
2026-05-06 12:17 31.11228 121.80132 1918 ft 195 kts 160°
2026-05-06 12:17 31.09835 121.80705 2175 ft 226 kts 162°
2026-05-06 12:17 31.08293 121.81274 2585 ft 241 kts 163°
2026-05-06 12:18 31.06643 121.81844 3170 ft 251 kts 165°
2026-05-06 12:18 31.04956 121.82408 3791 ft 259 kts 165°
2026-05-06 12:18 31.03188 121.82978 4460 ft 263 kts 170°
2026-05-06 12:18 31.01358 121.82968 5020 ft 266 kts 198°
2026-05-06 12:19 30.99727 121.82029 5646 ft 266 kts 218°
2026-05-06 12:19 30.98455 121.80454 5901 ft 270 kts 243°
2026-05-06 12:19 30.97838 121.78396 5912 ft 269 kts 253°
2026-05-06 12:19 30.97309 121.76314 5905 ft 272 kts 252°
2026-05-06 12:20 30.96746 121.74206 5898 ft 268 kts 252°
2026-05-06 12:20 30.96267 121.72151 5871 ft 262 kts 264°
2026-05-06 12:20 30.96479 121.70063 6133 ft 265 kts 282°
2026-05-06 12:20 30.96896 121.67928 6664 ft 272 kts 281°
2026-05-06 12:21 30.97289 121.65768 7306 ft 275 kts 281°
2026-05-06 12:21 30.97688 121.63575 8012 ft 277 kts 281°
2026-05-06 12:21 30.98094 121.61362 8688 ft 279 kts 281°
2026-05-06 12:21 30.98504 121.59130 9351 ft 282 kts 281°
2026-05-06 12:22 30.98916 121.56891 9999 ft 285 kts 281°
2026-05-06 12:22 30.99334 121.54619 10442 ft 296 kts 281°
2026-05-06 12:22 30.99784 121.52166 10586 ft 318 kts 281°
2026-05-06 12:22 31.00259 121.49579 10751 ft 340 kts 281°
2026-05-06 12:23 31.00771 121.46789 10920 ft 360 kts 281°
2026-05-06 12:23 31.01303 121.43896 11354 ft 371 kts 281°
2026-05-06 12:23 31.01851 121.40921 11908 ft 378 kts 281°
2026-05-06 12:23 31.02402 121.37922 12580 ft 382 kts 281°
2026-05-06 12:24 31.02964 121.34864 13288 ft 384 kts 281°
2026-05-06 12:24 31.03483 121.32031 13902 ft 387 kts 281°
2026-05-06 12:24 31.04050 121.28933 14485 ft 390 kts 281°
2026-05-06 12:24 31.04620 121.25819 15115 ft 392 kts 281°
2026-05-06 12:25 31.05183 121.22734 15747 ft 393 kts 281°
2026-05-06 12:25 31.05765 121.19631 16318 ft 393 kts 284°
2026-05-06 12:25 31.06903 121.16700 16649 ft 404 kts 304°
2026-05-06 12:25 31.08894 121.14340 17169 ft 412 kts 322°
2026-05-06 12:26 31.11402 121.12729 17778 ft 418 kts 336°
2026-05-06 12:26 31.14270 121.11977 18284 ft 426 kts 353°
2026-05-06 12:26 31.17244 121.11859 18562 ft 433 kts 355°
2026-05-06 12:26 31.20304 121.11786 18972 ft 438 kts 355°
2026-05-06 12:27 31.23333 121.11674 19465 ft 439 kts 354°
2026-05-06 12:27 31.26405 121.11515 19971 ft 440 kts 354°
2026-05-06 12:27 31.29448 121.11337 20429 ft 443 kts 353°
2026-05-06 12:27 31.32556 121.11151 20864 ft 446 kts 353°
2026-05-06 12:28 31.35635 121.10981 21292 ft 450 kts 355°
2026-05-06 12:28 31.38802 121.11074 21729 ft 456 kts
2026-05-06 12:28 31.41984 121.11364 22172 ft 459 kts
2026-05-06 12:28 31.45139 121.11401 22457 ft 455 kts 347°
2026-05-06 12:29 31.48135 121.10290 22736 ft 446 kts 330°
2026-05-06 12:29 31.50916 121.08675 23054 ft 450 kts 330°
2026-05-06 12:29 31.53730 121.07089 23463 ft 453 kts 330°
2026-05-06 12:29 31.56620 121.05507 23863 ft 455 kts 331°
2026-05-06 12:30 31.59483 121.03967 24273 ft 456 kts 331°
2026-05-06 12:30 31.62394 121.02415 24674 ft 457 kts 331°
2026-05-06 12:30 31.65267 121.00889 25043 ft 459 kts 331°
2026-05-06 12:30 31.68205 120.99327 25417 ft 461 kts 331°
2026-05-06 12:31 31.71124 120.97773 25786 ft 463 kts 331°
2026-05-06 12:31 31.74074 120.96201 26186 ft 465 kts 331°
2026-05-06 12:31 31.77013 120.94631 26570 ft 466 kts 331°
2026-05-06 12:31 31.79986 120.93043 26938 ft 468 kts 331°
2026-05-06 12:32 31.82928 120.91469 27301 ft 470 kts 331°
2026-05-06 12:32 31.85930 120.89862 27667 ft 472 kts 332°
2026-05-06 12:32 31.88904 120.88269 28024 ft 474 kts 332°
2026-05-06 12:32 31.91933 120.86646 28374 ft 475 kts 332°
2026-05-06 12:33 31.94924 120.85042 28708 ft 477 kts 332°
2026-05-06 12:33 31.97969 120.83406 29038 ft 479 kts 332°
2026-05-06 12:33 32.00989 120.81780 29342 ft 481 kts 332°
2026-05-06 12:33 32.04052 120.80128 29647 ft 483 kts 332°
2026-05-06 12:34 32.07082 120.78494 30003 ft 483 kts 332°
2026-05-06 12:34 32.10155 120.76834 30374 ft 479 kts 330°
2026-05-06 12:34 32.12935 120.74795 30574 ft 473 kts 315°
2026-05-06 12:34 32.15087 120.71893 30817 ft 467 kts 300°
2026-05-06 12:35 32.16598 120.68557 31167 ft 463 kts 291°
2026-05-06 12:35 32.17555 120.64930 31518 ft 459 kts 278°
2026-05-06 12:35 32.17873 120.61218 31738 ft 458 kts 274°
2026-05-06 12:35 32.18123 120.57436 31851 ft 459 kts 274°
2026-05-06 12:36 32.18653 120.49942 31931 ft 458 kts 275°
2026-05-06 12:36 32.19250 120.42471 31927 ft 457 kts 275°
2026-05-06 12:37 32.19865 120.35006 31930 ft 456 kts 275°
2026-05-06 12:37 32.20469 120.27562 31924 ft 456 kts 275°
2026-05-06 12:38 32.21080 120.20092 31925 ft 457 kts 275°
2026-05-06 12:38 32.21692 120.12613 31918 ft 458 kts 275°
2026-05-06 12:39 32.22300 120.05118 31920 ft 459 kts 275°
2026-05-06 12:39 32.22905 119.97590 31915 ft 460 kts 275°
2026-05-06 12:40 32.23505 119.90079 31915 ft 460 kts 275°
2026-05-06 12:40 32.24109 119.82559 31912 ft 458 kts 277°
2026-05-06 12:41 32.24911 119.78893 31908 ft 462 kts 292°
2026-05-06 12:41 32.26465 119.75601 31918 ft 467 kts 303°
2026-05-06 12:41 32.28560 119.72672 31908 ft 472 kts 315°
2026-05-06 12:41 32.31205 119.70307 31928 ft 474 kts 322°
2026-05-06 12:42 32.36660 119.65870 31921 ft 476 kts 322°
2026-05-06 12:42 32.42044 119.61338 31910 ft 475 kts 321°
2026-05-06 12:43 32.47387 119.56758 31910 ft 474 kts 320°
2026-05-06 12:43 32.52706 119.52170 31911 ft 474 kts 320°
2026-05-06 12:44 32.58039 119.47554 31911 ft 474 kts 320°
2026-05-06 12:44 32.63379 119.42928 31903 ft 474 kts 320°
2026-05-06 12:45 32.68712 119.38304 31902 ft 474 kts 320°
2026-05-06 12:46 32.76666 119.31394 31905 ft 474 kts 320°
2026-05-06 12:46 32.81984 119.26764 31903 ft 474 kts 320°
2026-05-06 12:47 32.87338 119.22095 31902 ft 474 kts 320°
2026-05-06 12:47 32.92654 119.17454 31898 ft 474 kts 320°
2026-05-06 12:48 32.97957 119.12842 31898 ft 474 kts 320°
2026-05-06 12:48 33.03305 119.08226 31899 ft 474 kts 320°
2026-05-06 12:49 33.08636 119.03613 31896 ft 474 kts 320°
2026-05-06 12:49 33.13974 118.98980 31894 ft 474 kts 320°
2026-05-06 12:50 33.19312 118.94341 31898 ft 474 kts 320°
2026-05-06 12:50 33.24627 118.89724 31894 ft 474 kts 320°
2026-05-06 12:51 33.29984 118.85070 31895 ft 474 kts 320°
2026-05-06 12:51 33.35324 118.80451 31889 ft 474 kts 320°
2026-05-06 12:52 33.40661 118.75838 31892 ft 473 kts 320°
2026-05-06 12:52 33.45988 118.71221 31894 ft 473 kts 320°
2026-05-06 12:53 33.51317 118.66604 31893 ft 473 kts 320°
2026-05-06 12:53 33.56661 118.61978 31890 ft 473 kts 320°
2026-05-06 12:54 33.61987 118.57359 31885 ft 472 kts 320°
2026-05-06 12:54 33.67302 118.52740 31887 ft 472 kts 320°
2026-05-06 12:55 33.72609 118.48120 31883 ft 472 kts 320°
2026-05-06 12:55 33.77932 118.43478 31886 ft 471 kts 319°
2026-05-06 12:56 33.83240 118.38842 31882 ft 471 kts 319°
2026-05-06 12:56 33.88534 118.34212 31882 ft 471 kts 319°
2026-05-06 12:57 33.93806 118.29592 31890 ft 471 kts 319°
2026-05-06 12:57 33.99122 118.24933 31877 ft 471 kts 319°
2026-05-06 12:58 34.04410 118.20325 31884 ft 471 kts 319°
2026-05-06 12:58 34.09723 118.15684 31885 ft 470 kts 319°
2026-05-06 12:59 34.14989 118.11067 31885 ft 470 kts 319°
2026-05-06 12:59 34.20304 118.06398 31867 ft 470 kts 319°
2026-05-06 13:00 34.25667 118.01907 31866 ft 474 kts 325°
2026-05-06 13:00 34.31664 117.98440 31871 ft 479 kts 334°
2026-05-06 13:01 34.38060 117.96027 31873 ft 482 kts 338°
2026-05-06 13:01 34.44485 117.93817 31866 ft 482 kts 338°
2026-05-06 13:02 34.50948 117.91551 31861 ft 481 kts 338°
2026-05-06 13:02 34.57371 117.89258 31855 ft 481 kts 338°
2026-05-06 13:03 34.62734 117.87333 31862 ft 482 kts 338°
2026-05-06 13:03 34.69142 117.85029 31861 ft 482 kts 338°
2026-05-06 13:04 34.75591 117.82711 31947 ft 482 kts 338°
2026-05-06 13:04 34.82023 117.80398 31949 ft 484 kts 338°
2026-05-06 13:05 34.88493 117.78086 31947 ft 484 kts 338°
2026-05-06 13:05 34.94929 117.75741 31949 ft 483 kts 337°
2026-05-06 13:06 35.01384 117.73384 31943 ft 483 kts 337°
2026-05-06 13:06 35.07797 117.71044 31937 ft 483 kts 337°
2026-05-06 13:07 35.14255 117.68676 31939 ft 483 kts 337°
2026-05-06 13:07 35.20699 117.66304 31948 ft 483 kts 337°
2026-05-06 13:08 35.27145 117.63929 31949 ft 484 kts 336°
2026-05-06 13:08 35.33561 117.61570 31935 ft 483 kts 336°
2026-05-06 13:09 35.40012 117.59192 31936 ft 482 kts 336°
2026-05-06 13:09 35.46424 117.56820 31934 ft 482 kts 336°
2026-05-06 13:10 35.52822 117.54447 31928 ft 481 kts 336°
2026-05-06 13:10 35.59244 117.52062 31927 ft 480 kts 336°
2026-05-06 13:11 35.65642 117.49677 31923 ft 480 kts 336°
2026-05-06 13:11 35.72037 117.47293 31923 ft 480 kts 336°
2026-05-06 13:12 35.78380 117.44929 31919 ft 479 kts 336°
2026-05-06 13:12 35.84763 117.42545 31922 ft 479 kts 336°
2026-05-06 13:13 35.91142 117.40158 31923 ft 479 kts 336°
2026-05-06 13:13 35.97529 117.37764 31923 ft 478 kts 335°
2026-05-06 13:14 36.03870 117.35393 31928 ft 478 kts 336°
2026-05-06 13:14 36.10251 117.33035 31921 ft 476 kts 335°
2026-05-06 13:15 36.16599 117.30685 31934 ft 476 kts 335°
2026-05-06 13:15 36.22946 117.28327 31934 ft 476 kts 335°
2026-05-06 13:16 36.29250 117.25981 31941 ft 475 kts 335°
2026-05-06 13:16 36.35575 117.23624 31937 ft 474 kts 335°
2026-05-06 13:17 36.41897 117.21244 31948 ft 471 kts 333°
2026-05-06 13:17 36.47913 117.18250 31937 ft 467 kts 329°
2026-05-06 13:18 36.53907 117.15052 31949 ft 467 kts 329°
2026-05-06 13:18 36.59853 117.11913 31969 ft 467 kts 329°
2026-05-06 13:19 36.65845 117.08781 31965 ft 467 kts 329°
2026-05-06 13:19 36.71842 117.05651 31974 ft 466 kts 329°
2026-05-06 13:20 36.77838 117.02516 31973 ft 466 kts 329°
2026-05-06 13:20 36.83788 116.99397 31974 ft 466 kts 329°
2026-05-06 13:21 36.89796 116.96242 31971 ft 467 kts 329°
2026-05-06 13:21 36.95790 116.93089 31963 ft 467 kts 328°
2026-05-06 13:22 37.01786 116.89929 31963 ft 468 kts 328°
2026-05-06 13:22 37.07759 116.86777 31952 ft 468 kts 328°
2026-05-06 13:23 37.13771 116.83599 31955 ft 469 kts 328°
2026-05-06 13:23 37.19753 116.80431 31951 ft 469 kts 328°
2026-05-06 13:24 37.25973 116.77687 31965 ft 478 kts 334°
2026-05-06 13:24 37.32363 116.75323 31963 ft 479 kts 334°
2026-05-06 13:25 37.38728 116.72962 31968 ft 479 kts 334°
2026-05-06 13:25 37.45140 116.70547 31974 ft 479 kts 334°
2026-05-06 13:26 37.51494 116.68136 31979 ft 480 kts 334°
2026-05-06 13:26 37.57904 116.65698 31984 ft 480 kts 333°
2026-05-06 13:27 37.64289 116.63268 31987 ft 480 kts 333°
2026-05-06 13:27 37.70677 116.60834 31990 ft 480 kts 333°
2026-05-06 13:28 37.77088 116.58385 31992 ft 480 kts 333°
2026-05-06 13:28 37.83451 116.55951 32014 ft 480 kts 333°
2026-05-06 13:29 37.89856 116.53497 32005 ft 480 kts 333°
2026-05-06 13:29 37.96128 116.50721 32011 ft 469 kts 325°
2026-05-06 13:30 38.01720 116.46770 32023 ft 457 kts 316°
2026-05-06 13:30 38.06840 116.42006 32025 ft 456 kts 315°
2026-05-06 13:31 38.11982 116.37264 32021 ft 457 kts 315°
2026-05-06 13:31 38.17130 116.32520 32020 ft 456 kts 315°
2026-05-06 13:32 38.22276 116.27854 32012 ft 461 kts 321°
2026-05-06 13:32 38.25317 116.26283 32032 ft 485 kts 337°
2026-05-06 13:32 38.28729 116.25694 32028 ft 504 kts 350°
2026-05-06 13:32 38.32285 116.26224 32022 ft 522 kts
2026-05-06 13:33 38.35804 116.27469 32045 ft 526 kts
2026-05-06 13:33 38.42824 116.30124 32047 ft 528 kts
2026-05-06 13:34 38.49909 116.32664 32044 ft 526 kts
2026-05-06 13:34 38.56940 116.35081 32048 ft 527 kts
2026-05-06 13:35 38.64005 116.37518 32053 ft 527 kts
2026-05-06 13:35 38.71114 116.40004 32058 ft 528 kts
2026-05-06 13:36 38.78205 116.42511 32066 ft 529 kts
2026-05-06 13:36 38.85256 116.45009 32066 ft 529 kts
2026-05-06 13:37 38.92379 116.47534 32065 ft 529 kts
2026-05-06 13:37 38.99462 116.50049 32072 ft 530 kts
2026-05-06 13:38 39.06554 116.52573 32080 ft 530 kts
2026-05-06 13:38 39.13677 116.55116 32083 ft 531 kts
2026-05-06 13:39 39.20822 116.57747 32080 ft 535 kts 10°
2026-05-06 13:39 39.27857 116.60956 32085 ft 538 kts 12°
2026-05-06 13:40 39.34843 116.64277 32088 ft 538 kts 12°
2026-05-06 13:40 39.41883 116.67589 32078 ft 538 kts 11°
2026-05-06 13:41 39.48944 116.70880 32078 ft 538 kts 11°
2026-05-06 13:41 39.55965 116.74155 32079 ft 538 kts 11°
2026-05-06 13:42 39.63021 116.77460 32080 ft 538 kts 11°
2026-05-06 13:42 39.70024 116.80749 32083 ft 538 kts 11°
2026-05-06 13:43 39.77118 116.83731 32073 ft 526 kts
2026-05-06 13:43 39.80707 116.84369 32087 ft 515 kts 354°
2026-05-06 13:43 39.84265 116.84484 32092 ft 508 kts 347°
2026-05-06 13:43 39.87733 116.84042 32092 ft 497 kts 340°
2026-05-06 13:44 39.91103 116.83329 32097 ft 497 kts 340°
2026-05-06 13:44 39.97923 116.81855 32098 ft 496 kts 340°
2026-05-06 13:45 40.04768 116.80449 32099 ft 496 kts 340°
2026-05-06 13:45 40.15005 116.78407 32100 ft 497 kts 340°
2026-05-06 13:46 40.21858 116.77037 32098 ft 497 kts 340°
2026-05-06 13:46 40.28675 116.75668 32102 ft 498 kts 340°
2026-05-06 13:47 40.35407 116.73963 32099 ft 485 kts 332°
2026-05-06 13:47 40.41844 116.71343 32095 ft 482 kts 331°
2026-05-06 13:48 40.48210 116.68696 32101 ft 482 kts 331°
2026-05-06 13:48 40.54629 116.66081 32104 ft 482 kts 331°
2026-05-06 13:49 40.61047 116.63494 32113 ft 482 kts 331°
2026-05-06 13:49 40.67431 116.60911 32121 ft 482 kts 331°
2026-05-06 13:50 40.73855 116.58303 32117 ft 482 kts 331°
2026-05-06 13:50 40.80472 116.56333 32130 ft 499 kts 342°
2026-05-06 13:51 40.87465 116.55653 32139 ft 505 kts 345°
2026-05-06 13:51 40.94458 116.55105 32140 ft 504 kts 345°
2026-05-06 13:52 41.01460 116.54469 32143 ft 503 kts 344°
2026-05-06 13:52 41.08451 116.53801 32142 ft 503 kts 344°
2026-05-06 13:53 41.14269 116.53244 32137 ft 504 kts 344°
2026-05-06 13:53 41.21234 116.52350 32145 ft 491 kts 336°
2026-05-06 13:54 41.24483 116.51198 32163 ft 478 kts 329°
2026-05-06 13:54 41.27551 116.49612 32162 ft 469 kts 323°
2026-05-06 13:54 41.30386 116.47601 32155 ft 458 kts 317°
2026-05-06 13:54 41.33087 116.45436 32162 ft 457 kts 317°
2026-05-06 13:55 41.38529 116.41050 32169 ft 457 kts 317°
2026-05-06 13:55 41.44002 116.36677 32177 ft 458 kts 317°
2026-05-06 13:56 41.49481 116.32328 32174 ft 458 kts 318°
2026-05-06 13:56 41.54932 116.28006 32193 ft 457 kts 318°
2026-05-06 13:57 41.60383 116.23673 32201 ft 456 kts 318°
2026-05-06 13:57 41.65810 116.19344 32207 ft 455 kts 318°
2026-05-06 13:58 41.71258 116.14992 32213 ft 455 kts 318°
2026-05-06 13:58 41.76708 116.10631 32220 ft 455 kts 318°
2026-05-06 13:59 41.82113 116.06296 32229 ft 454 kts 318°
2026-05-06 13:59 41.87533 116.01942 32220 ft 454 kts 319°
2026-05-06 14:00 41.92832 115.97479 32227 ft 443 kts 311°
2026-05-06 14:00 41.95076 115.94730 32243 ft 432 kts 304°
2026-05-06 14:00 41.97044 115.91700 32245 ft 429 kts 300°
2026-05-06 14:01 42.00143 115.84976 32242 ft 421 kts 291°
2026-05-06 14:01 42.02887 115.78055 32243 ft 421 kts 291°
2026-05-06 14:02 42.05658 115.71112 32251 ft 420 kts 292°
2026-05-06 14:02 42.08431 115.64216 32267 ft 420 kts 292°
2026-05-06 14:03 42.11219 115.57286 32264 ft 420 kts 292°
2026-05-06 14:03 42.13985 115.50394 32269 ft 420 kts 292°
2026-05-06 14:04 42.16757 115.43468 32276 ft 420 kts 292°
2026-05-06 14:04 42.19531 115.36523 32279 ft 420 kts 292°
2026-05-06 14:05 42.21990 115.29487 32279 ft 412 kts 282°
2026-05-06 14:05 42.23041 115.21930 32290 ft 410 kts 273°
2026-05-06 14:06 42.22866 115.14256 32292 ft 410 kts 264°
2026-05-06 14:06 42.22291 115.06646 32287 ft 410 kts 264°
2026-05-06 14:07 42.21722 114.98990 32296 ft 410 kts 264°
2026-05-06 14:07 42.21174 114.91354 32300 ft 409 kts 264°
2026-05-06 14:08 42.20630 114.83694 32301 ft 410 kts 264°
2026-05-06 14:08 42.20083 114.76034 32307 ft 410 kts 264°
2026-05-06 14:09 42.19533 114.68408 32312 ft 411 kts 264°
2026-05-06 14:09 42.18975 114.60742 32312 ft 410 kts 264°
2026-05-06 14:10 42.18412 114.53083 32317 ft 411 kts 264°
2026-05-06 14:10 42.17841 114.45401 32324 ft 411 kts 264°
2026-05-06 14:11 42.17267 114.37722 32317 ft 412 kts 264°
2026-05-06 14:11 42.16687 114.30044 32322 ft 411 kts 264°
2026-05-06 14:12 42.16104 114.22405 32330 ft 412 kts 264°
2026-05-06 14:12 42.15512 114.14710 32329 ft 412 kts 264°
2026-05-06 14:13 42.14918 114.07049 32327 ft 412 kts 264°
2026-05-06 14:13 42.14315 113.99341 32333 ft 412 kts 264°
2026-05-06 14:14 42.13707 113.91648 32341 ft 413 kts 264°
2026-05-06 14:14 42.13099 113.84011 32344 ft 413 kts 265°
2026-05-06 14:15 42.12482 113.76317 32345 ft 413 kts 265°
2026-05-06 14:15 42.11860 113.68622 32341 ft 413 kts 265°
2026-05-06 14:16 42.11233 113.60928 32346 ft 413 kts 265°
2026-05-06 14:16 42.10600 113.53237 32344 ft 413 kts 265°
2026-05-06 14:17 42.09589 113.45641 32346 ft 415 kts 257°
2026-05-06 14:17 42.08128 113.38120 32343 ft 414 kts 258°
2026-05-06 14:18 42.06704 113.30634 32351 ft 414 kts 258°
2026-05-06 14:18 42.05280 113.23135 32348 ft 415 kts 258°
2026-05-06 14:19 42.03845 113.15626 32347 ft 415 kts 258°
2026-05-06 14:19 42.02405 113.08106 32353 ft 415 kts 258°
2026-05-06 14:20 42.00963 113.00577 32355 ft 415 kts 258°
2026-05-06 14:20 41.99527 112.93107 32356 ft 415 kts 258°
2026-05-06 14:21 41.98077 112.85589 32348 ft 415 kts 258°
2026-05-06 14:21 41.96621 112.78063 32359 ft 415 kts 258°
2026-05-06 14:22 41.95217 112.70589 32352 ft 413 kts 262°
2026-05-06 14:22 41.94973 112.62898 32373 ft 412 kts 273°
2026-05-06 14:23 41.95797 112.55282 32369 ft 414 kts 283°
2026-05-06 14:23 41.97344 112.47839 32365 ft 414 kts 284°
2026-05-06 14:24 41.98903 112.40374 32375 ft 414 kts 284°
2026-05-06 14:24 42.00421 112.32950 32372 ft 414 kts 284°
2026-05-06 14:25 42.01933 112.25453 32377 ft 414 kts 283°
2026-05-06 14:25 42.03425 112.18011 32383 ft 413 kts 283°
2026-05-06 14:26 42.04917 112.10540 32374 ft 413 kts 284°
2026-05-06 14:26 42.06404 112.03072 32388 ft 413 kts 284°
2026-05-06 14:27 42.07887 111.95593 32386 ft 414 kts 284°
2026-05-06 14:27 42.09357 111.88154 32384 ft 414 kts 284°
2026-05-06 14:28 42.10831 111.80668 32390 ft 413 kts 284°
2026-05-06 14:28 42.12299 111.73180 32388 ft 414 kts 284°
2026-05-06 14:29 42.13764 111.65681 32386 ft 413 kts 284°
2026-05-06 14:29 42.15225 111.58175 32389 ft 414 kts 284°
2026-05-06 14:30 42.16679 111.50672 32388 ft 413 kts 284°
2026-05-06 14:30 42.18130 111.43167 32395 ft 414 kts 284°
2026-05-06 14:31 42.19500 111.35679 32391 ft 414 kts 279°
2026-05-06 14:31 42.19946 111.27939 32395 ft 415 kts 272°
2026-05-06 14:32 42.19587 111.20161 32407 ft 416 kts 265°
2026-05-06 14:32 42.18742 111.12433 32404 ft 417 kts 264°
2026-05-06 14:33 42.17876 111.04705 32401 ft 417 kts 264°
2026-05-06 14:33 42.17022 110.96964 32400 ft 417 kts 264°
2026-05-06 14:34 42.16176 110.89235 32403 ft 417 kts 264°
2026-05-06 14:34 42.15335 110.81555 32403 ft 417 kts 264°
2026-05-06 14:35 42.14483 110.73825 32403 ft 417 kts 264°
2026-05-06 14:35 42.13624 110.66084 32406 ft 417 kts 264°
2026-05-06 14:36 42.12760 110.58350 32407 ft 417 kts 264°
2026-05-06 14:36 42.11891 110.50614 32407 ft 417 kts 264°
2026-05-06 14:37 42.11017 110.42885 32412 ft 417 kts 264°
2026-05-06 14:37 42.10143 110.35203 32409 ft 418 kts 264°
2026-05-06 14:38 42.09258 110.27473 32412 ft 418 kts 264°
2026-05-06 14:38 42.08366 110.19727 32414 ft 417 kts 264°
2026-05-06 14:39 42.07470 110.11995 32414 ft 418 kts 264°
2026-05-06 14:39 42.06574 110.04314 32409 ft 418 kts 264°
2026-05-06 14:40 42.05669 109.96598 32426 ft 418 kts 264°
2026-05-06 14:40 42.04758 109.88874 32424 ft 418 kts 264°
2026-05-06 14:41 42.03840 109.81139 32425 ft 418 kts 264°
2026-05-06 14:41 42.02919 109.73423 32431 ft 418 kts 264°
2026-05-06 14:42 42.01991 109.65702 32424 ft 418 kts 264°
2026-05-06 14:42 42.01063 109.58022 32432 ft 418 kts 264°
2026-05-06 14:43 42.00276 109.51546 32428 ft 418 kts 264°
2026-05-06 14:43 41.99335 109.43834 32426 ft 418 kts 264°
2026-05-06 14:44 41.98392 109.36159 32426 ft 419 kts 264°
2026-05-06 14:45 41.96959 109.24568 32427 ft 419 kts 264°
2026-05-06 14:45 41.95995 109.16836 32427 ft 419 kts 264°
2026-05-06 14:46 41.95026 109.09099 32426 ft 419 kts 264°
2026-05-06 14:46 41.94053 109.01378 32429 ft 420 kts 264°
2026-05-06 14:47 41.93073 108.93642 32422 ft 420 kts 264°
2026-05-06 14:47 41.92086 108.85896 32426 ft 420 kts 263°
2026-05-06 14:48 41.91094 108.78157 32428 ft 421 kts 263°
2026-05-06 14:48 41.90103 108.70461 32421 ft 421 kts 263°
2026-05-06 14:49 41.89099 108.62720 32432 ft 421 kts 263°
2026-05-06 14:49 41.88091 108.54977 32423 ft 422 kts 263°
2026-05-06 14:50 41.87075 108.47217 32427 ft 422 kts 263°
2026-05-06 14:50 41.86055 108.39474 32427 ft 422 kts 263°
2026-05-06 14:51 41.85029 108.31722 32427 ft 422 kts 263°
2026-05-06 14:51 41.83996 108.23966 32423 ft 422 kts 263°
2026-05-06 14:52 41.82959 108.16215 32426 ft 422 kts 263°
2026-05-06 14:52 41.81922 108.08503 32424 ft 423 kts 263°
2026-05-06 14:53 41.80872 108.00746 32421 ft 423 kts 263°
2026-05-06 14:53 41.79817 107.92987 32424 ft 423 kts 263°
2026-05-06 14:54 41.78756 107.85223 32424 ft 424 kts 263°
2026-05-06 14:54 41.77687 107.77445 32418 ft 424 kts 263°
2026-05-06 14:55 41.76612 107.69669 32425 ft 424 kts 263°
2026-05-06 14:55 41.75531 107.61882 32424 ft 425 kts 263°
2026-05-06 14:56 41.74446 107.54108 32424 ft 425 kts 263°
2026-05-06 14:56 41.73362 107.46384 32423 ft 425 kts 263°
2026-05-06 14:57 41.72264 107.38599 32420 ft 425 kts 263°
2026-05-06 14:57 41.71162 107.30822 32421 ft 425 kts 263°
2026-05-06 14:58 41.70054 107.23046 32419 ft 425 kts 263°
2026-05-06 14:58 41.68942 107.15279 32417 ft 425 kts 263°
2026-05-06 14:59 41.67827 107.07531 32417 ft 424 kts 263°
2026-05-06 14:59 41.66707 106.99784 32423 ft 424 kts 263°
2026-05-06 15:00 41.65588 106.92088 32408 ft 424 kts 263°
2026-05-06 15:00 41.64459 106.84355 32415 ft 423 kts 263°
2026-05-06 15:01 41.63325 106.76631 32406 ft 424 kts 263°
2026-05-06 15:01 41.62185 106.68905 32409 ft 424 kts 263°
2026-05-06 15:02 41.61037 106.61164 32401 ft 424 kts 263°
2026-05-06 15:02 41.59887 106.53439 32397 ft 424 kts 263°
2026-05-06 15:03 41.58730 106.45708 32398 ft 424 kts 262°
2026-05-06 15:03 41.57575 106.38026 32393 ft 425 kts 262°
2026-05-06 15:04 41.56404 106.30276 32391 ft 425 kts 262°
2026-05-06 15:04 41.55228 106.22524 32392 ft 426 kts 262°
2026-05-06 15:05 41.54046 106.14774 32389 ft 426 kts 262°
2026-05-06 15:05 41.52524 106.07162 32386 ft 431 kts 254°
2026-05-06 15:06 41.50269 105.99734 32375 ft 432 kts 253°
2026-05-06 15:06 41.48019 105.92303 32377 ft 431 kts 253°
2026-05-06 15:07 41.45782 105.84876 32381 ft 431 kts 253°
2026-05-06 15:07 41.43543 105.77454 32377 ft 431 kts 253°
2026-05-06 15:08 41.41300 105.70039 32373 ft 431 kts 253°
2026-05-06 15:08 41.39051 105.62627 32370 ft 432 kts 253°
2026-05-06 15:09 41.36784 105.55269 32365 ft 433 kts 252°
2026-05-06 15:09 41.34474 105.47870 32374 ft 433 kts 252°
2026-05-06 15:10 41.32161 105.40471 32361 ft 433 kts 252°
2026-05-06 15:10 41.29845 105.33069 32358 ft 434 kts 252°
2026-05-06 15:11 41.27522 105.25661 32357 ft 434 kts 252°
2026-05-06 15:11 41.25193 105.18250 32372 ft 435 kts 252°
2026-05-06 15:12 41.22855 105.10835 32362 ft 435 kts 252°
2026-05-06 15:12 41.20509 105.03417 32357 ft 436 kts 252°
2026-05-06 15:13 41.18159 104.96002 32347 ft 436 kts 252°
2026-05-06 15:13 41.15802 104.88589 32347 ft 436 kts 252°
2026-05-06 15:14 41.13454 104.81220 32351 ft 436 kts 252°
2026-05-06 15:14 41.11086 104.73804 32349 ft 436 kts 252°
2026-05-06 15:15 41.08741 104.66386 32347 ft 436 kts 253°
2026-05-06 15:15 41.06492 104.58932 32350 ft 435 kts 253°
2026-05-06 15:16 41.04238 104.51470 32342 ft 436 kts 253°
2026-05-06 15:16 41.01969 104.44027 32340 ft 435 kts 253°
2026-05-06 15:17 40.99775 104.36620 32330 ft 430 kts 259°
2026-05-06 15:17 40.99316 104.32748 32351 ft 425 kts 270°
2026-05-06 15:17 40.99386 104.28845 32349 ft 424 kts 277°
2026-05-06 15:18 41.00866 104.21329 32356 ft 423 kts 291°
2026-05-06 15:18 41.03034 104.14047 32340 ft 426 kts 291°
2026-05-06 15:19 41.05181 104.06742 32330 ft 425 kts 290°
2026-05-06 15:19 41.07293 103.99422 32328 ft 425 kts 290°
2026-05-06 15:20 41.09389 103.92087 32329 ft 426 kts 290°
2026-05-06 15:20 41.11469 103.84776 32329 ft 426 kts 290°
2026-05-06 15:21 41.13556 103.77421 32324 ft 427 kts 290°
2026-05-06 15:21 41.15644 103.70044 32320 ft 427 kts 290°
2026-05-06 15:22 41.17729 103.62658 32324 ft 428 kts 290°
2026-05-06 15:22 41.19811 103.55258 32318 ft 428 kts 290°
2026-05-06 15:23 41.21893 103.47840 32312 ft 429 kts 290°
2026-05-06 15:23 41.23970 103.40415 32310 ft 429 kts 290°
2026-05-06 15:24 41.26047 103.32972 32308 ft 429 kts 290°
2026-05-06 15:24 41.28119 103.25521 32303 ft 430 kts 290°
2026-05-06 15:25 41.30177 103.18101 32305 ft 431 kts 290°
2026-05-06 15:25 41.32247 103.10612 32303 ft 432 kts 290°
2026-05-06 15:26 41.34318 103.03105 32294 ft 432 kts 290°
2026-05-06 15:26 41.36406 102.95586 32295 ft 433 kts 291°
2026-05-06 15:27 41.38580 102.88088 32294 ft 433 kts 291°
2026-05-06 15:27 41.40738 102.80634 32289 ft 434 kts 291°
2026-05-06 15:28 41.42899 102.73105 32283 ft 435 kts 291°
2026-05-06 15:28 41.45060 102.65571 32279 ft 435 kts 291°
2026-05-06 15:29 41.47231 102.58025 32276 ft 436 kts 291°
2026-05-06 15:29 41.49402 102.50465 32274 ft 437 kts 291°
2026-05-06 15:30 41.51573 102.42874 32273 ft 438 kts 291°
2026-05-06 15:30 41.53740 102.35269 32272 ft 439 kts 291°
2026-05-06 15:31 41.55543 102.28928 32270 ft 440 kts 291°
2026-05-06 15:31 41.57713 102.21271 32268 ft 441 kts 291°
2026-05-06 15:32 41.61315 102.08514 32261 ft 442 kts 291°
2026-05-06 15:32 41.63113 102.02119 32262 ft 443 kts 291°
2026-05-06 15:33 41.65276 101.94409 32255 ft 443 kts 291°
2026-05-06 15:33 41.67438 101.86679 32254 ft 444 kts 291°
2026-05-06 15:34 41.69598 101.78928 32253 ft 445 kts 291°
2026-05-06 15:34 41.71742 101.71215 32248 ft 445 kts 291°
2026-05-06 15:35 41.73897 101.63435 32251 ft 446 kts 291°
2026-05-06 15:35 41.76051 101.55635 32247 ft 446 kts 291°
2026-05-06 15:36 41.78203 101.47822 32248 ft 447 kts 291°
2026-05-06 15:36 41.80353 101.39984 32242 ft 448 kts 291°
2026-05-06 15:37 41.82490 101.32180 32245 ft 449 kts 291°
2026-05-06 15:37 41.84400 101.24201 32242 ft 450 kts 284°
2026-05-06 15:38 41.85324 101.15881 32237 ft 453 kts 275°
2026-05-06 15:38 41.85534 101.07419 32237 ft 455 kts 274°
2026-05-06 15:39 41.85698 100.98940 32242 ft 455 kts 274°
2026-05-06 15:39 41.85874 100.90455 32237 ft 455 kts 274°
2026-05-06 15:40 41.86060 100.81951 32247 ft 456 kts 274°
2026-05-06 15:40 41.86246 100.73434 32229 ft 456 kts 274°
2026-05-06 15:41 41.86426 100.64919 32231 ft 457 kts 274°
2026-05-06 15:41 41.86599 100.56393 32238 ft 457 kts 273°
2026-05-06 15:42 41.86765 100.47907 32242 ft 458 kts 273°
2026-05-06 15:42 41.86926 100.39358 32239 ft 459 kts 273°
2026-05-06 15:43 41.87080 100.30801 32235 ft 459 kts 273°
2026-05-06 15:43 41.87229 100.22225 32236 ft 460 kts 273°
2026-05-06 15:44 41.87371 100.13643 32238 ft 461 kts 273°
2026-05-06 15:44 41.87507 100.05042 32237 ft 461 kts 273°
2026-05-06 15:45 41.87637 99.96427 32238 ft 462 kts 273°
2026-05-06 15:45 41.87760 99.87845 32237 ft 462 kts 272°
2026-05-06 15:46 41.87877 99.79213 32240 ft 463 kts 272°
2026-05-06 15:46 41.87988 99.70576 32243 ft 463 kts 272°
2026-05-06 15:47 41.88092 99.61935 32241 ft 463 kts 272°
2026-05-06 15:47 41.88190 99.53287 32246 ft 463 kts 272°
2026-05-06 15:48 41.88281 99.44634 32249 ft 464 kts 272°
2026-05-06 15:48 41.88367 99.35970 32248 ft 464 kts 272°
2026-05-06 15:49 41.88446 99.27319 32246 ft 464 kts 272°
2026-05-06 15:49 41.88517 99.18715 32251 ft 464 kts 272°
2026-05-06 15:50 41.88583 99.10050 32252 ft 464 kts 272°
2026-05-06 15:50 41.88642 99.01383 32257 ft 464 kts 272°
2026-05-06 15:51 41.88695 98.92716 32263 ft 464 kts 272°
2026-05-06 15:51 41.88741 98.84051 32264 ft 464 kts 272°
2026-05-06 15:52 41.88781 98.75437 32266 ft 464 kts 272°
2026-05-06 15:52 41.88814 98.66765 32274 ft 465 kts 271°
2026-05-06 15:53 41.88840 98.58081 32270 ft 465 kts 271°
2026-05-06 15:53 41.88861 98.49397 32280 ft 465 kts 271°
2026-05-06 15:54 41.88874 98.40710 32277 ft 465 kts 271°
2026-05-06 15:54 41.88881 98.32022 32270 ft 466 kts 271°
2026-05-06 15:55 41.88882 98.23320 32277 ft 466 kts 271°
2026-05-06 15:55 41.88876 98.14670 32279 ft 467 kts 271°
2026-05-06 15:56 41.88863 98.05947 32275 ft 467 kts 271°
2026-05-06 15:56 41.88844 97.97232 32282 ft 467 kts 271°
2026-05-06 15:57 41.88818 97.88505 32281 ft 468 kts 270°
2026-05-06 15:57 41.88786 97.79759 32280 ft 468 kts 270°
2026-05-06 15:58 41.88746 97.71005 32280 ft 469 kts 270°
2026-05-06 15:58 41.88701 97.62314 32276 ft 469 kts 270°
2026-05-06 15:59 41.88649 97.53542 32282 ft 470 kts 270°
2026-05-06 15:59 41.88589 97.44772 32281 ft 470 kts 270°
2026-05-06 16:00 41.88523 97.36003 32279 ft 470 kts 270°
2026-05-06 16:00 41.88451 97.27228 32272 ft 470 kts 270°
2026-05-06 16:01 41.88372 97.18458 32279 ft 470 kts 270°
2026-05-06 16:01 41.88286 97.09729 32282 ft 470 kts 270°
2026-05-06 16:02 41.88194 97.00936 32282 ft 471 kts 270°
2026-05-06 16:02 41.88094 96.92142 32297 ft 471 kts 270°
2026-05-06 16:03 41.87987 96.83340 32279 ft 471 kts 269°
2026-05-06 16:03 41.87874 96.74551 32295 ft 471 kts 269°
2026-05-06 16:04 41.87756 96.65816 32289 ft 471 kts 269°
2026-05-06 16:04 41.87630 96.57035 32300 ft 471 kts 269°
2026-05-06 16:05 41.87497 96.48255 32295 ft 470 kts 269°
2026-05-06 16:05 41.87358 96.39476 32296 ft 470 kts 269°
2026-05-06 16:06 41.87213 96.30700 32304 ft 470 kts 269°
2026-05-06 16:06 41.87068 96.21910 32307 ft 470 kts 269°
2026-05-06 16:07 41.87017 96.13140 32295 ft 470 kts 270°
2026-05-06 16:07 41.86990 96.04372 32296 ft 470 kts 270°
2026-05-06 16:08 41.86946 95.95640 32296 ft 470 kts 270°
2026-05-06 16:08 41.86886 95.86867 32297 ft 470 kts 270°
2026-05-06 16:09 41.86818 95.78102 32296 ft 470 kts 269°
2026-05-06 16:09 41.86743 95.69346 32294 ft 469 kts 269°
2026-05-06 16:10 41.86662 95.60591 32287 ft 469 kts 269°
2026-05-06 16:10 41.86575 95.51844 32283 ft 469 kts 269°
2026-05-06 16:11 41.86481 95.43151 32281 ft 469 kts 269°
2026-05-06 16:11 41.86382 95.34402 32281 ft 469 kts 269°
2026-05-06 16:12 41.86326 95.25665 32261 ft 467 kts 274°
2026-05-06 16:12 41.86932 95.21382 32270 ft 469 kts 288°
2026-05-06 16:12 41.88203 95.17337 32273 ft 472 kts 298°
2026-05-06 16:13 41.90031 95.13688 32269 ft 472 kts 309°
2026-05-06 16:13 41.92212 95.10383 32271 ft 474 kts 311°
2026-05-06 16:13 41.96652 95.03804 32248 ft 475 kts 311°
2026-05-06 16:14 42.01057 94.97190 32251 ft 474 kts 310°
2026-05-06 16:14 42.05419 94.90532 32239 ft 474 kts 310°
2026-05-06 16:15 42.09764 94.83846 32236 ft 474 kts 310°
2026-05-06 16:15 42.14100 94.77158 32237 ft 474 kts 310°
2026-05-06 16:16 42.18401 94.70513 32231 ft 473 kts 310°
2026-05-06 16:16 42.22724 94.63819 32229 ft 473 kts 310°
2026-05-06 16:17 42.27036 94.57130 32226 ft 472 kts 310°
2026-05-06 16:17 42.31348 94.50424 32229 ft 473 kts 310°
2026-05-06 16:18 42.35659 94.43704 32222 ft 473 kts 310°
2026-05-06 16:18 42.39974 94.36964 32219 ft 473 kts 310°
2026-05-06 16:19 42.44283 94.30218 32222 ft 474 kts 310°
2026-05-06 16:19 42.48567 94.23495 32214 ft 474 kts 310°
2026-05-06 16:20 42.52875 94.16718 32222 ft 475 kts 310°
2026-05-06 16:20 42.56461 94.11065 32222 ft 475 kts 310°
2026-05-06 16:21 42.60781 94.04240 32224 ft 476 kts 310°
2026-05-06 16:21 42.65096 93.97408 32223 ft 476 kts 310°
2026-05-06 16:22 42.69399 93.90578 32224 ft 476 kts 310°
2026-05-06 16:22 42.73697 93.83740 32227 ft 476 kts 310°
2026-05-06 16:23 42.77992 93.76892 32223 ft 475 kts 310°
2026-05-06 16:23 42.82169 93.70005 32219 ft 474 kts 304°
2026-05-06 16:24 42.85415 93.62206 32225 ft 474 kts 294°
2026-05-06 16:24 42.87670 93.53769 32226 ft 473 kts 288°
2026-05-06 16:25 42.89740 93.45252 32216 ft 473 kts 288°
2026-05-06 16:25 42.91818 93.36754 32216 ft 472 kts 288°
2026-05-06 16:26 42.93918 93.28254 32210 ft 472 kts 288°
2026-05-06 16:26 42.96017 93.19768 32215 ft 471 kts 288°
2026-05-06 16:27 42.98096 93.11338 32208 ft 471 kts 288°
2026-05-06 16:27 43.00179 93.02854 32214 ft 471 kts 288°
2026-05-06 16:28 43.02253 92.94375 32209 ft 470 kts 288°
2026-05-06 16:28 43.04325 92.85871 32215 ft 470 kts 288°
2026-05-06 16:29 43.06382 92.77396 32208 ft 469 kts 288°
2026-05-06 16:29 43.08433 92.68916 32216 ft 469 kts 288°
2026-05-06 16:30 43.10130 92.61876 32205 ft 469 kts 288°
2026-05-06 16:30 43.12496 92.52023 32208 ft 468 kts 288°
2026-05-06 16:31 43.14522 92.43551 32209 ft 468 kts 288°
2026-05-06 16:31 43.16542 92.35075 32220 ft 468 kts 288°
2026-05-06 16:32 43.18551 92.26609 32209 ft 467 kts 288°
2026-05-06 16:32 43.20557 92.18128 32220 ft 467 kts 287°
2026-05-06 16:33 43.22554 92.09652 32215 ft 467 kts 287°
2026-05-06 16:34 43.25536 91.96930 32207 ft 466 kts 287°
2026-05-06 16:34 43.27501 91.88513 32216 ft 466 kts 287°
2026-05-06 16:35 43.29472 91.80031 32216 ft 466 kts 287°
2026-05-06 16:35 43.31439 91.71538 32217 ft 466 kts 287°
2026-05-06 16:36 43.33399 91.63043 32222 ft 466 kts 287°
2026-05-06 16:36 43.35350 91.54554 32233 ft 466 kts 287°
2026-05-06 16:37 43.37294 91.46060 32241 ft 466 kts 287°
2026-05-06 16:37 43.39233 91.37559 32246 ft 465 kts 287°
2026-05-06 16:38 43.41151 91.29108 32253 ft 465 kts 287°
2026-05-06 16:38 43.43064 91.20606 32245 ft 464 kts 287°
2026-05-06 16:39 43.44964 91.12122 32269 ft 463 kts 287°
2026-05-06 16:39 43.46856 91.03647 32279 ft 463 kts 287°
2026-05-06 16:40 43.48745 90.95154 32270 ft 463 kts 287°
2026-05-06 16:40 43.50623 90.86682 32278 ft 462 kts 287°
2026-05-06 16:41 43.52481 90.78260 32290 ft 462 kts 287°
2026-05-06 16:41 43.54342 90.69794 32288 ft 462 kts 287°
2026-05-06 16:42 43.56198 90.61312 32295 ft 462 kts 287°
2026-05-06 16:42 43.58046 90.52841 32299 ft 461 kts 286°
2026-05-06 16:43 43.59887 90.44363 32307 ft 462 kts 286°
2026-05-06 16:43 43.61725 90.35868 32308 ft 462 kts 286°
2026-05-06 16:44 43.63558 90.27357 32306 ft 462 kts 286°
2026-05-06 16:44 43.65385 90.18844 32306 ft 463 kts 286°
2026-05-06 16:45 43.67209 90.10313 32304 ft 463 kts 286°
2026-05-06 16:45 43.69081 90.01784 32297 ft 464 kts 287°
2026-05-06 16:45 43.70056 89.97527 32076 ft 466 kts 289°
2026-05-06 16:46 43.71043 89.93241 32180 ft 471 kts 289°
2026-05-06 16:46 43.73042 89.84506 32287 ft 482 kts 289°
2026-05-06 16:47 43.75034 89.75689 32285 ft 485 kts 289°
2026-05-06 16:47 43.77034 89.66773 32271 ft 485 kts 289°
2026-05-06 16:48 43.79026 89.57865 32273 ft 484 kts 289°
2026-05-06 16:48 43.81019 89.48966 32269 ft 483 kts 289°
2026-05-06 16:49 43.83076 89.40113 32265 ft 483 kts 289°
2026-05-06 16:49 43.85147 89.31259 32261 ft 483 kts 289°
2026-05-06 16:50 43.87201 89.22390 32257 ft 483 kts 289°
2026-05-06 16:50 43.89225 89.13587 32259 ft 483 kts 289°
2026-05-06 16:51 43.91257 89.04710 32264 ft 483 kts 289°
2026-05-06 16:51 43.93282 88.95830 32266 ft 483 kts 289°
2026-05-06 16:52 43.95302 88.86941 32264 ft 482 kts 289°
2026-05-06 16:52 43.97332 88.78070 32265 ft 482 kts 290°
2026-05-06 16:53 43.99558 88.69278 32268 ft 482 kts 291°
2026-05-06 16:53 44.01822 88.60508 32264 ft 482 kts 291°
2026-05-06 16:54 44.04036 88.51782 32262 ft 482 kts 291°
2026-05-06 16:54 44.06241 88.42979 32258 ft 482 kts 290°
2026-05-06 16:55 44.08436 88.34171 32256 ft 482 kts 290°
2026-05-06 16:55 44.10625 88.25362 32248 ft 482 kts 290°
2026-05-06 16:56 44.12812 88.16531 32241 ft 482 kts 290°
2026-05-06 16:56 44.14989 88.07712 32235 ft 481 kts 290°
2026-05-06 16:57 44.17452 87.99122 32217 ft 479 kts 299°
2026-05-06 16:57 44.20976 87.91283 32206 ft 477 kts 308°
2026-05-06 16:58 44.25024 87.83948 32199 ft 477 kts 309°
2026-05-06 16:58 44.29049 87.76588 32194 ft 477 kts 308°
2026-05-06 16:59 44.33039 87.69180 32193 ft 477 kts 308°
2026-05-06 16:59 44.37058 87.61813 32191 ft 476 kts 309°
2026-05-06 17:00 44.41110 87.54476 32190 ft 476 kts 309°
2026-05-06 17:00 44.45119 87.47180 32190 ft 476 kts 308°
2026-05-06 17:01 44.49138 87.39829 32190 ft 475 kts 308°
2026-05-06 17:01 44.53150 87.32470 32182 ft 475 kts 308°
2026-05-06 17:02 44.57190 87.25143 32177 ft 474 kts 310°
2026-05-06 17:02 44.61376 87.17985 32176 ft 474 kts 310°
2026-05-06 17:03 44.65563 87.10820 32173 ft 474 kts 310°
2026-05-06 17:03 44.69723 87.03610 32182 ft 474 kts 310°
2026-05-06 17:04 44.73875 86.96395 32181 ft 474 kts 310°
2026-05-06 17:04 44.78003 86.89229 32176 ft 474 kts 309°
2026-05-06 17:05 44.82150 86.82011 32168 ft 474 kts 309°
2026-05-06 17:05 44.86281 86.74751 32168 ft 474 kts 309°
2026-05-06 17:06 44.90372 86.67450 32158 ft 474 kts 309°
2026-05-06 17:06 44.94460 86.60129 32154 ft 474 kts 309°
2026-05-06 17:07 44.97850 86.54054 32172 ft 474 kts 309°
2026-05-06 17:07 45.01933 86.46728 32169 ft 474 kts 309°
2026-05-06 17:08 45.06010 86.39395 32171 ft 474 kts 309°
2026-05-06 17:08 45.10079 86.32057 32153 ft 474 kts 309°
2026-05-06 17:09 45.14146 86.24703 32159 ft 474 kts 309°
2026-05-06 17:09 45.18199 86.17355 32171 ft 473 kts 308°
2026-05-06 17:10 45.22219 86.10049 32154 ft 473 kts 308°
2026-05-06 17:10 45.26292 86.02628 32149 ft 473 kts 308°
2026-05-06 17:11 45.30308 85.95289 32131 ft 473 kts 308°
2026-05-06 17:11 45.34340 85.87905 32136 ft 472 kts 308°
2026-05-06 17:12 45.38364 85.80515 32141 ft 472 kts 308°
2026-05-06 17:12 45.42379 85.73121 32146 ft 472 kts 308°
2026-05-06 17:13 45.46384 85.65728 32130 ft 471 kts 308°
2026-05-06 17:13 45.50385 85.58321 32126 ft 471 kts 308°
2026-05-06 17:14 45.54352 85.50959 32140 ft 471 kts 308°
2026-05-06 17:14 45.58343 85.43533 32143 ft 471 kts 307°
2026-05-06 17:15 45.62324 85.36105 32146 ft 471 kts 307°
2026-05-06 17:15 45.66301 85.28665 32140 ft 470 kts 307°
2026-05-06 17:16 45.70271 85.21223 32145 ft 470 kts 307°
2026-05-06 17:16 45.74242 85.13802 32161 ft 470 kts 307°
2026-05-06 17:17 45.78222 85.06365 32171 ft 470 kts 307°
2026-05-06 17:17 45.82189 84.98926 32176 ft 470 kts 307°
2026-05-06 17:18 45.86156 84.91464 32167 ft 470 kts 307°
2026-05-06 17:18 45.90087 84.84049 32177 ft 470 kts 307°
2026-05-06 17:19 45.94046 84.76561 32178 ft 470 kts 306°
2026-05-06 17:19 45.97991 84.69080 32183 ft 470 kts 306°
2026-05-06 17:20 46.01932 84.61585 32207 ft 470 kts 306°
2026-05-06 17:20 46.05869 84.54079 32196 ft 470 kts 306°
2026-05-06 17:21 46.09808 84.46549 32197 ft 469 kts 306°
2026-05-06 17:21 46.13730 84.39030 32210 ft 469 kts 306°
2026-05-06 17:22 46.17645 84.31506 32215 ft 469 kts 306°
2026-05-06 17:22 46.21557 84.23965 32213 ft 469 kts 306°
2026-05-06 17:23 46.25440 84.16464 32220 ft 468 kts 305°
2026-05-06 17:23 46.29328 84.08912 32206 ft 468 kts 305°
2026-05-06 17:24 46.33209 84.01324 32202 ft 468 kts 305°
2026-05-06 17:24 46.37051 83.93790 32198 ft 468 kts 305°
2026-05-06 17:25 46.40919 83.86190 32190 ft 468 kts 305°
2026-05-06 17:25 46.44776 83.78592 32178 ft 468 kts 305°
2026-05-06 17:26 46.48628 83.70983 32174 ft 468 kts 304°
2026-05-06 17:26 46.52478 83.63356 32174 ft 468 kts 304°
2026-05-06 17:27 46.56317 83.55730 32172 ft 468 kts 304°
2026-05-06 17:27 46.60151 83.48094 32168 ft 468 kts 304°
2026-05-06 17:28 46.63962 83.40484 32171 ft 467 kts 304°
2026-05-06 17:28 46.67646 83.32707 32171 ft 466 kts 301°
2026-05-06 17:29 46.71094 83.24693 32177 ft 466 kts 300°
2026-05-06 17:29 46.74531 83.16666 32177 ft 466 kts 300°
2026-05-06 17:30 46.77979 83.08659 32176 ft 466 kts 301°
2026-05-06 17:30 46.81428 83.00643 32180 ft 466 kts 300°
2026-05-06 17:31 46.84761 82.92531 32178 ft 465 kts 294°
2026-05-06 17:31 46.86969 82.83688 32189 ft 463 kts 284°
2026-05-06 17:32 46.88075 82.74421 32194 ft 463 kts 277°
2026-05-06 17:32 46.88972 82.65087 32189 ft 463 kts 277°
2026-05-06 17:33 46.89883 82.55818 32182 ft 463 kts 278°
2026-05-06 17:33 46.90820 82.46487 32185 ft 464 kts 278°
2026-05-06 17:34 46.91756 82.37161 32185 ft 464 kts 278°
2026-05-06 17:34 46.92686 82.27808 32181 ft 464 kts 277°
2026-05-06 17:35 46.93600 82.18520 32173 ft 464 kts 277°
2026-05-06 17:35 46.94514 82.09148 32171 ft 465 kts 277°
2026-05-06 17:36 46.95872 81.95096 32168 ft 465 kts 277°
2026-05-06 17:36 46.96755 81.85761 32161 ft 465 kts 277°
2026-05-06 17:37 46.97626 81.76355 32163 ft 466 kts 277°
2026-05-06 17:37 46.98488 81.66956 32159 ft 466 kts 277°
2026-05-06 17:38 46.99347 81.57526 32157 ft 466 kts 277°
2026-05-06 17:38 47.00193 81.48161 32158 ft 466 kts 277°
2026-05-06 17:39 47.01037 81.38737 32164 ft 467 kts 277°
2026-05-06 17:39 47.01873 81.29307 32159 ft 467 kts 277°
2026-05-06 17:40 47.02703 81.19849 32162 ft 467 kts 277°
2026-05-06 17:40 47.03525 81.10402 32156 ft 467 kts 277°
2026-05-06 17:41 47.04340 81.00947 32153 ft 468 kts 277°
2026-05-06 17:41 47.05148 80.91486 32154 ft 468 kts 277°
2026-05-06 17:42 47.05946 80.82059 32149 ft 468 kts 277°
2026-05-06 17:42 47.06741 80.72582 32144 ft 468 kts 277°
2026-05-06 17:43 47.07528 80.63098 32141 ft 469 kts 277°
2026-05-06 17:43 47.08309 80.53594 32139 ft 469 kts 277°
2026-05-06 17:44 47.09082 80.44090 32131 ft 469 kts 277°
2026-05-06 17:44 47.09847 80.34577 32139 ft 469 kts 277°
2026-05-06 17:45 47.10606 80.25048 32133 ft 469 kts 277°
2026-05-06 17:45 47.11356 80.15523 32133 ft 470 kts 277°
2026-05-06 17:46 47.12099 80.05990 32124 ft 470 kts 277°
2026-05-06 17:46 47.12830 79.96510 32127 ft 470 kts 277°
2026-05-06 17:47 47.13557 79.86985 32125 ft 470 kts 277°
2026-05-06 17:47 47.14284 79.77452 32123 ft 470 kts 277°
2026-05-06 17:48 47.15012 79.67912 32124 ft 470 kts 277°
2026-05-06 17:48 47.15732 79.58361 32121 ft 470 kts 277°
2026-05-06 17:49 47.16443 79.48806 32127 ft 470 kts 277°
2026-05-06 17:49 47.17145 79.39255 32121 ft 470 kts 277°
2026-05-06 17:50 47.17841 79.29684 32130 ft 471 kts 277°
2026-05-06 17:50 47.18530 79.20109 32129 ft 472 kts 277°
2026-05-06 17:51 47.19210 79.10505 32126 ft 472 kts 277°
2026-05-06 17:51 47.19873 79.00903 32130 ft 472 kts 277°
2026-05-06 17:52 47.20524 78.91350 32127 ft 473 kts 277°
2026-05-06 17:52 47.21173 78.81715 32132 ft 473 kts 277°
2026-05-06 17:53 47.21815 78.72074 32141 ft 473 kts 277°
2026-05-06 17:53 47.22450 78.62423 32141 ft 473 kts 277°
2026-05-06 17:54 47.23073 78.52830 32138 ft 474 kts 277°
2026-05-06 17:54 47.23691 78.43179 32139 ft 474 kts 277°
2026-05-06 17:55 47.24301 78.33519 32145 ft 474 kts 277°
2026-05-06 17:55 47.24904 78.23854 32145 ft 474 kts 277°
2026-05-06 17:56 47.25499 78.14176 32147 ft 474 kts 277°
2026-05-06 17:56 47.25987 78.06146 32150 ft 474 kts 277°
2026-05-06 17:57 47.26660 77.94905 32142 ft 474 kts 277°
2026-05-06 17:57 47.27230 77.85229 32148 ft 474 kts 277°
2026-05-06 17:58 47.27698 77.77183 32149 ft 474 kts 277°
2026-05-06 17:58 47.28253 77.67507 32140 ft 474 kts 277°
2026-05-06 17:59 47.28801 77.57815 32143 ft 475 kts 277°
2026-05-06 17:59 47.29341 77.48115 32142 ft 475 kts 277°
2026-05-06 18:00 47.29872 77.38427 32151 ft 475 kts 277°
2026-05-06 18:00 47.30396 77.28713 32145 ft 475 kts 277°
2026-05-06 18:01 47.30912 77.19012 32146 ft 475 kts 277°
2026-05-06 18:01 47.31417 77.09373 32143 ft 475 kts 278°
2026-05-06 18:02 47.32157 76.99742 32145 ft 472 kts 282°
2026-05-06 18:02 47.33152 76.90173 32153 ft 472 kts 282°
2026-05-06 18:03 47.34148 76.80622 32145 ft 471 kts 282°
2026-05-06 18:03 47.35118 76.71065 32144 ft 470 kts 282°
2026-05-06 18:04 47.36065 76.61532 32143 ft 470 kts 282°
2026-05-06 18:04 47.37002 76.51996 32146 ft 469 kts 282°
2026-05-06 18:05 47.37929 76.42477 32143 ft 468 kts 282°
2026-05-06 18:05 47.38850 76.32947 32142 ft 468 kts 281°
2026-05-06 18:06 47.39761 76.23442 32139 ft 468 kts 281°
2026-05-06 18:06 47.40665 76.13918 32140 ft 468 kts 281°
2026-05-06 18:07 47.41554 76.04461 32139 ft 468 kts 281°
2026-05-06 18:07 47.42441 75.94950 32137 ft 467 kts 281°
2026-05-06 18:08 47.43320 75.85431 32138 ft 468 kts 281°
2026-05-06 18:08 47.44192 75.75903 32138 ft 468 kts 281°
2026-05-06 18:09 47.45055 75.66378 32142 ft 468 kts 281°
2026-05-06 18:09 47.45910 75.56847 32147 ft 467 kts 280°
2026-05-06 18:10 47.46759 75.47307 32146 ft 467 kts 280°
2026-05-06 18:10 47.47593 75.37837 32149 ft 467 kts 280°
2026-05-06 18:11 47.48424 75.28303 32152 ft 467 kts 280°
2026-05-06 18:11 47.49247 75.18780 32158 ft 467 kts 280°
2026-05-06 18:12 47.50062 75.09249 32158 ft 467 kts 280°
2026-05-06 18:12 47.50868 74.99723 32157 ft 466 kts 279°
2026-05-06 18:13 47.51665 74.90212 32160 ft 466 kts 279°
2026-05-06 18:13 47.52452 74.80715 32158 ft 465 kts 279°
2026-05-06 18:14 47.53232 74.71225 32157 ft 464 kts 279°
2026-05-06 18:14 47.53997 74.61801 32154 ft 463 kts 279°
2026-05-06 18:15 47.54759 74.52333 32151 ft 462 kts 279°
2026-05-06 18:15 47.55510 74.42890 32158 ft 461 kts 279°
2026-05-06 18:16 47.56254 74.33446 32155 ft 461 kts 279°
2026-05-06 18:16 47.56988 74.24020 32153 ft 461 kts 279°
2026-05-06 18:17 47.57713 74.14608 32152 ft 460 kts 278°
2026-05-06 18:17 47.58430 74.05187 32149 ft 459 kts 278°
2026-05-06 18:18 47.59138 73.95794 32154 ft 459 kts 278°
2026-05-06 18:18 47.59838 73.86403 32150 ft 458 kts 278°
2026-05-06 18:19 47.60526 73.77072 32151 ft 458 kts 278°
2026-05-06 18:19 47.61209 73.67696 32157 ft 457 kts 278°
2026-05-06 18:20 47.61884 73.58324 32152 ft 457 kts 278°
2026-05-06 18:20 47.62550 73.48963 32157 ft 457 kts 277°
2026-05-06 18:21 47.63209 73.39603 32157 ft 456 kts 277°
2026-05-06 18:21 47.63860 73.30240 32160 ft 456 kts 277°
2026-05-06 18:22 47.64499 73.20938 32163 ft 456 kts 277°
2026-05-06 18:22 47.65133 73.11594 32164 ft 455 kts 277°
2026-05-06 18:23 47.65759 73.02253 32171 ft 455 kts 276°
2026-05-06 18:23 47.66379 72.92894 32168 ft 455 kts 276°
2026-05-06 18:24 47.66990 72.83557 32170 ft 455 kts 276°
2026-05-06 18:24 47.67589 72.74273 32170 ft 455 kts 276°
2026-05-06 18:25 47.68185 72.64930 32171 ft 455 kts 276°
2026-05-06 18:25 47.68773 72.55582 32171 ft 455 kts 275°
2026-05-06 18:26 47.69353 72.46227 32174 ft 455 kts 275°
2026-05-06 18:26 47.69926 72.36881 32173 ft 455 kts 275°
2026-05-06 18:27 47.70492 72.27526 32169 ft 455 kts 275°
2026-05-06 18:27 47.71049 72.18170 32169 ft 455 kts 275°
2026-05-06 18:28 47.71600 72.08804 32166 ft 455 kts 275°
2026-05-06 18:28 47.72140 71.99494 32166 ft 455 kts 274°
2026-05-06 18:29 47.72676 71.90131 32159 ft 455 kts 274°
2026-05-06 18:29 47.73199 71.80762 32158 ft 455 kts 274°
2026-05-06 18:30 47.73609 71.71393 32148 ft 454 kts 272°
2026-05-06 18:30 47.73976 71.62036 32145 ft 454 kts 272°
2026-05-06 18:31 47.74347 71.52667 32141 ft 454 kts 272°
2026-05-06 18:31 47.74720 71.43299 32136 ft 454 kts 272°
2026-05-06 18:32 47.75087 71.33933 32139 ft 454 kts 272°
2026-05-06 18:32 47.75444 71.24629 32129 ft 454 kts 272°
2026-05-06 18:33 47.75796 71.15262 32130 ft 454 kts 272°
2026-05-06 18:33 47.76140 71.05889 32124 ft 454 kts 272°
2026-05-06 18:34 47.76475 70.96530 32125 ft 454 kts 272°
2026-05-06 18:34 47.76804 70.87169 32126 ft 454 kts 271°
2026-05-06 18:35 47.77125 70.77791 32121 ft 454 kts 271°
2026-05-06 18:35 47.77440 70.68411 32118 ft 454 kts 271°
2026-05-06 18:36 47.77745 70.59041 32115 ft 454 kts 271°
2026-05-06 18:36 47.78041 70.49722 32112 ft 454 kts 271°
2026-05-06 18:37 47.78285 70.41876 32107 ft 454 kts 271°
2026-05-06 18:37 47.78614 70.30984 32106 ft 454 kts 271°
2026-05-06 18:38 47.78890 70.21614 32096 ft 454 kts 270°
2026-05-06 18:38 47.79159 70.12227 32096 ft 453 kts 270°
2026-05-06 18:39 47.79419 70.02860 32092 ft 453 kts 270°
2026-05-06 18:40 47.79795 69.88788 32088 ft 453 kts 270°
2026-05-06 18:40 47.80035 69.79488 32086 ft 453 kts 270°
2026-05-06 18:41 47.80268 69.70124 32083 ft 452 kts 270°
2026-05-06 18:41 47.80494 69.60773 32080 ft 452 kts 269°
2026-05-06 18:42 47.80711 69.51434 32078 ft 452 kts 269°
2026-05-06 18:42 47.80921 69.42097 32077 ft 452 kts 269°
2026-05-06 18:43 47.81124 69.32756 32073 ft 451 kts 269°
2026-05-06 18:43 47.81319 69.23425 32073 ft 452 kts 269°
2026-05-06 18:44 47.81506 69.14083 32071 ft 452 kts 269°
2026-05-06 18:44 47.81656 69.06311 32063 ft 451 kts 269°
2026-05-06 18:45 47.81830 68.96961 32066 ft 451 kts 268°
2026-05-06 18:45 47.81998 68.87614 32078 ft 451 kts 268°
2026-05-06 18:46 47.81865 68.78306 32072 ft 448 kts 261°
2026-05-06 18:46 47.81000 68.69126 32075 ft 448 kts 259°
2026-05-06 18:47 47.80129 68.59951 32068 ft 448 kts 259°
2026-05-06 18:47 47.79277 68.50828 32066 ft 448 kts 259°
2026-05-06 18:48 47.78420 68.41639 32080 ft 448 kts 259°
2026-05-06 18:48 47.77557 68.32457 32081 ft 449 kts 259°
2026-05-06 18:49 47.76685 68.23272 32073 ft 449 kts 259°
2026-05-06 18:49 47.75805 68.14074 32077 ft 449 kts 259°
2026-05-06 18:50 47.74916 68.04871 32075 ft 450 kts 259°
2026-05-06 18:50 47.74021 67.95675 32080 ft 450 kts 259°
2026-05-06 18:51 47.73118 67.86480 32079 ft 450 kts 259°
2026-05-06 18:51 47.72205 67.77274 32081 ft 450 kts 259°
2026-05-06 18:52 47.70963 67.68174 32082 ft 450 kts 256°
2026-05-06 18:52 47.69604 67.59167 32080 ft 450 kts 256°
2026-05-06 18:53 47.68236 67.50089 32086 ft 450 kts 256°
2026-05-06 18:53 47.66873 67.41001 32085 ft 450 kts 256°
2026-05-06 18:54 47.65510 67.31935 32084 ft 451 kts 256°
2026-05-06 18:54 47.64136 67.22853 32080 ft 451 kts 256°
2026-05-06 18:55 47.62754 67.13766 32082 ft 452 kts 256°
2026-05-06 18:55 47.61374 67.04744 32079 ft 452 kts 256°
2026-05-06 18:56 47.59977 66.95665 32082 ft 452 kts 256°
2026-05-06 18:56 47.58570 66.86574 32082 ft 452 kts 256°
2026-05-06 18:57 47.57158 66.77486 32076 ft 452 kts 256°
2026-05-06 18:57 47.55728 66.68412 32075 ft 453 kts 256°
2026-05-06 18:58 47.54235 66.59351 32069 ft 452 kts 256°
2026-05-06 18:58 47.52730 66.50315 32065 ft 452 kts 256°
2026-05-06 18:59 47.51226 66.41279 32069 ft 452 kts 255°
2026-05-06 18:59 47.49718 66.32250 32062 ft 452 kts 255°
2026-05-06 19:00 47.48204 66.23228 32057 ft 452 kts 255°
2026-05-06 19:00 47.46691 66.14255 32053 ft 452 kts 255°
2026-05-06 19:01 47.45164 66.05250 32049 ft 451 kts 255°
2026-05-06 19:01 47.43632 65.96258 32048 ft 451 kts 255°
2026-05-06 19:02 47.42095 65.87277 32043 ft 450 kts 255°
2026-05-06 19:02 47.40573 65.78309 32040 ft 450 kts 255°
2026-05-06 19:03 47.39090 65.69334 32037 ft 450 kts 255°
2026-05-06 19:03 47.37611 65.60422 32032 ft 449 kts 255°
2026-05-06 19:04 47.36111 65.51467 32028 ft 449 kts 255°
2026-05-06 19:04 47.34606 65.42536 32028 ft 449 kts 255°
2026-05-06 19:05 47.33094 65.33613 32027 ft 448 kts 255°
2026-05-06 19:05 47.31573 65.24686 32024 ft 448 kts 255°
2026-05-06 19:06 47.30051 65.15789 32027 ft 448 kts 254°
2026-05-06 19:06 47.28531 65.06948 32022 ft 448 kts 254°
2026-05-06 19:07 47.26994 64.98055 32023 ft 448 kts 254°
2026-05-06 19:07 47.25458 64.89165 32026 ft 448 kts 254°
2026-05-06 19:08 47.23916 64.80270 32025 ft 448 kts 254°
2026-05-06 19:08 47.22370 64.71398 32023 ft 447 kts 254°
2026-05-06 19:09 47.20822 64.62548 32021 ft 446 kts 253°
2026-05-06 19:09 47.19266 64.53706 32021 ft 446 kts 253°
2026-05-06 19:10 47.17707 64.44896 32021 ft 445 kts 253°
2026-05-06 19:10 47.16144 64.36097 32022 ft 444 kts 253°
2026-05-06 19:11 47.14584 64.27355 32024 ft 445 kts 253°
2026-05-06 19:11 47.13009 64.18572 32025 ft 444 kts 253°
2026-05-06 19:12 47.11430 64.09805 32028 ft 444 kts 253°
2026-05-06 19:12 47.09845 64.01043 32031 ft 444 kts 253°
2026-05-06 19:13 47.08253 63.92287 32027 ft 444 kts 253°
2026-05-06 19:13 47.06654 63.83535 32027 ft 443 kts 252°
2026-05-06 19:14 47.05062 63.74864 32027 ft 443 kts 252°
2026-05-06 19:14 47.03453 63.66144 32031 ft 443 kts 252°
2026-05-06 19:15 47.01840 63.57436 32030 ft 443 kts 252°
2026-05-06 19:15 47.00219 63.48730 32029 ft 442 kts 252°
2026-05-06 19:16 46.98593 63.40042 32029 ft 442 kts 252°
2026-05-06 19:16 46.96968 63.31392 32033 ft 442 kts 252°
2026-05-06 19:17 46.95328 63.22707 32035 ft 442 kts 252°
2026-05-06 19:17 46.93684 63.14041 32036 ft 442 kts 251°
2026-05-06 19:18 46.92039 63.05407 32035 ft 442 kts 251°
2026-05-06 19:18 46.90382 62.96748 32033 ft 442 kts 251°
2026-05-06 19:19 46.88715 62.88077 32023 ft 442 kts 251°
2026-05-06 19:19 46.87051 62.79463 32028 ft 442 kts 251°
2026-05-06 19:20 46.85365 62.70768 32021 ft 443 kts 251°
2026-05-06 19:20 46.83685 62.62138 32024 ft 443 kts 251°
2026-05-06 19:21 46.81989 62.53479 32023 ft 443 kts 251°
2026-05-06 19:21 46.80297 62.44889 32011 ft 443 kts 251°
2026-05-06 19:22 46.78588 62.36247 32011 ft 443 kts 251°
2026-05-06 19:22 46.76869 62.27586 32008 ft 443 kts 251°
2026-05-06 19:23 46.75159 62.19010 32010 ft 443 kts 251°
2026-05-06 19:23 46.73426 62.10348 32008 ft 443 kts 251°
2026-05-06 19:24 46.71701 62.01773 32006 ft 442 kts 251°
2026-05-06 19:24 46.69961 61.93157 32010 ft 442 kts 251°
2026-05-06 19:25 46.68228 61.84613 32009 ft 442 kts 251°
2026-05-06 19:25 46.66479 61.76024 32009 ft 442 kts 251°
2026-05-06 19:26 46.64718 61.67416 32001 ft 442 kts 251°
2026-05-06 19:26 46.62964 61.58884 32006 ft 443 kts 251°
2026-05-06 19:27 46.61193 61.50301 32007 ft 443 kts 251°
2026-05-06 19:27 46.59409 61.41693 32007 ft 443 kts 251°
2026-05-06 19:28 46.57629 61.33135 32001 ft 443 kts 251°
2026-05-06 19:28 46.55842 61.24586 32007 ft 443 kts 251°
2026-05-06 19:29 46.54043 61.16015 32007 ft 443 kts 250°
2026-05-06 19:29 46.52251 61.07514 32014 ft 443 kts 250°
2026-05-06 19:30 46.50440 60.98956 32011 ft 443 kts 250°
2026-05-06 19:30 46.48618 60.90385 32007 ft 443 kts 250°
2026-05-06 19:31 46.47103 60.83284 32008 ft 443 kts 250°
2026-05-06 19:31 46.44060 60.69094 32003 ft 444 kts 250°
2026-05-06 19:32 46.42218 60.60549 31997 ft 444 kts 250°
2026-05-06 19:32 46.40365 60.51992 31988 ft 445 kts 250°
2026-05-06 19:33 46.38820 60.44885 32001 ft 445 kts 250°
2026-05-06 19:33 46.36963 60.36371 32015 ft 445 kts 250°
2026-05-06 19:34 46.35089 60.27815 32000 ft 445 kts 250°
2026-05-06 19:34 46.33207 60.19258 32001 ft 445 kts 250°
2026-05-06 19:35 46.31320 60.10715 31994 ft 446 kts 250°
2026-05-06 19:35 46.29436 60.02218 31993 ft 446 kts 250°
2026-05-06 19:36 46.27534 59.93674 31995 ft 446 kts 250°
2026-05-06 19:36 46.25627 59.85140 31996 ft 446 kts 249°
2026-05-06 19:37 46.23728 59.76668 31992 ft 446 kts 249°
2026-05-06 19:37 46.21806 59.68154 31995 ft 446 kts 249°
2026-05-06 19:38 46.19860 59.59634 31991 ft 446 kts 249°
2026-05-06 19:38 46.17909 59.51124 31991 ft 447 kts 249°
2026-05-06 19:39 46.15954 59.42618 31993 ft 447 kts 249°
2026-05-06 19:39 46.13989 59.34100 31988 ft 447 kts 249°
2026-05-06 19:40 46.12018 59.25591 31987 ft 447 kts 249°
2026-05-06 19:40 46.10042 59.17088 31992 ft 448 kts 249°
2026-05-06 19:41 46.08070 59.08638 31992 ft 448 kts 249°
2026-05-06 19:41 46.06074 59.00122 31989 ft 448 kts 249°
2026-05-06 19:42 46.04074 58.91616 31991 ft 448 kts 249°
2026-05-06 19:42 46.02068 58.83118 31996 ft 448 kts 249°
2026-05-06 19:43 46.00066 58.74671 31995 ft 448 kts 249°
2026-05-06 19:43 45.98046 58.66181 31988 ft 448 kts 249°
2026-05-06 19:44 45.96019 58.57695 31988 ft 448 kts 248°
2026-05-06 19:44 45.94001 58.49276 31989 ft 447 kts 248°
2026-05-06 19:45 45.91973 58.40849 31989 ft 446 kts 248°
2026-05-06 19:45 45.89944 58.32449 31990 ft 446 kts 248°
2026-05-06 19:46 45.87893 58.23992 31989 ft 445 kts 248°
2026-05-06 19:46 45.85856 58.15624 31988 ft 445 kts 248°
2026-05-06 19:47 45.83814 58.07264 31986 ft 444 kts 248°
2026-05-06 19:47 45.81775 57.98949 31987 ft 444 kts 248°
2026-05-06 19:48 45.79714 57.90571 31983 ft 443 kts 248°
2026-05-06 19:48 45.77669 57.82292 31972 ft 443 kts 248°
2026-05-06 19:49 45.75606 57.73964 31981 ft 443 kts 247°
2026-05-06 19:49 45.73546 57.65683 31982 ft 443 kts 247°
2026-05-06 19:50 45.71473 57.57387 31981 ft 443 kts 247°
2026-05-06 19:50 45.69387 57.49058 31982 ft 442 kts 247°
2026-05-06 19:51 45.67317 57.40823 31981 ft 442 kts 247°
2026-05-06 19:51 45.65231 57.32552 31980 ft 442 kts 247°
2026-05-06 19:52 45.63142 57.24296 31978 ft 442 kts 247°
2026-05-06 19:52 45.61054 57.16078 31984 ft 442 kts 246°
2026-05-06 19:53 45.58958 57.07853 31976 ft 441 kts 246°
2026-05-06 19:53 45.56855 56.99629 31984 ft 441 kts 246°
2026-05-06 19:54 45.54736 56.91377 31983 ft 442 kts 246°
2026-05-06 19:54 45.52621 56.83168 31983 ft 442 kts 246°
2026-05-06 19:55 45.50500 56.74965 31988 ft 442 kts 246°
2026-05-06 19:55 45.48364 56.66732 31995 ft 442 kts 246°
2026-05-06 19:56 45.46226 56.58521 31986 ft 442 kts 246°
2026-05-06 19:56 45.44083 56.50320 31989 ft 443 kts 245°
2026-05-06 19:57 45.41932 56.42112 31994 ft 443 kts 245°
2026-05-06 19:57 45.39767 56.33884 31996 ft 443 kts 245°
2026-05-06 19:58 45.37612 56.25721 31997 ft 443 kts 245°
2026-05-06 19:58 45.35431 56.17492 31999 ft 443 kts 245°
2026-05-06 19:59 45.33251 56.09293 32001 ft 444 kts 245°
2026-05-06 19:59 45.31062 56.01087 32003 ft 445 kts 245°
2026-05-06 20:00 45.28861 55.92867 32007 ft 445 kts 244°
2026-05-06 20:00 45.26658 55.84661 32011 ft 446 kts 244°
2026-05-06 20:01 45.24442 55.76444 32013 ft 446 kts 244°
2026-05-06 20:01 45.22218 55.68219 32006 ft 445 kts 244°
2026-05-06 20:02 45.20003 55.60058 32015 ft 445 kts 244°
2026-05-06 20:02 45.17767 55.51845 32029 ft 445 kts 244°
2026-05-06 20:03 45.15546 55.43718 32030 ft 446 kts 244°
2026-05-06 20:03 45.13298 55.35515 32029 ft 446 kts 244°
2026-05-06 20:04 45.11055 55.27354 32024 ft 446 kts 244°
2026-05-06 20:04 45.08321 55.19557 32047 ft 440 kts 233°
2026-05-06 20:05 45.04510 55.12810 32030 ft 437 kts 223°
2026-05-06 20:05 45.00036 55.07001 32027 ft 437 kts 220°
2026-05-06 20:06 44.95524 55.01252 32035 ft 437 kts 221°
2026-05-06 20:06 44.91049 54.95502 32036 ft 437 kts 221°
2026-05-06 20:07 44.86570 54.89727 32036 ft 436 kts 221°
2026-05-06 20:07 44.82096 54.83965 32039 ft 436 kts 221°
2026-05-06 20:08 44.77611 54.78202 32039 ft 436 kts 221°
2026-05-06 20:08 44.73140 54.72471 32042 ft 435 kts 221°
2026-05-06 20:09 44.68658 54.66733 32039 ft 435 kts 222°
2026-05-06 20:09 44.64600 54.60447 32043 ft 436 kts 231°
2026-05-06 20:10 44.61122 54.53458 32046 ft 436 kts 233°
2026-05-06 20:10 44.57659 54.46462 32046 ft 435 kts 233°
2026-05-06 20:11 44.54189 54.39501 32042 ft 435 kts 233°
2026-05-06 20:11 44.50730 54.32589 32043 ft 434 kts 233°
2026-05-06 20:12 44.47269 54.25693 32040 ft 434 kts 233°
2026-05-06 20:12 44.43801 54.18797 32043 ft 434 kts 233°
2026-05-06 20:13 44.40313 54.11880 32046 ft 434 kts 233°
2026-05-06 20:13 44.36822 54.04973 32050 ft 434 kts 233°
2026-05-06 20:14 44.33333 53.98086 32049 ft 434 kts 233°
2026-05-06 20:14 44.29860 53.91245 32051 ft 433 kts 233°
2026-05-06 20:15 44.26366 53.84381 32052 ft 433 kts 233°
2026-05-06 20:15 44.22888 53.77564 32054 ft 433 kts 233°
2026-05-06 20:16 44.19386 53.70715 32057 ft 432 kts 233°
2026-05-06 20:16 44.15898 53.63910 32056 ft 432 kts 233°
2026-05-06 20:17 44.12406 53.57113 32059 ft 432 kts 233°
2026-05-06 20:17 44.08909 53.50322 32060 ft 432 kts 233°
2026-05-06 20:18 44.05386 53.43496 32062 ft 432 kts 233°
2026-05-06 20:18 44.01884 53.36727 32070 ft 432 kts 233°
2026-05-06 20:19 43.98392 53.29993 32060 ft 431 kts 233°
2026-05-06 20:19 43.94888 53.23249 32069 ft 431 kts 234°
2026-05-06 20:20 43.91363 53.16478 32067 ft 431 kts 234°
2026-05-06 20:20 43.88441 53.10882 32064 ft 430 kts 234°
2026-05-06 20:21 43.84353 53.03066 32066 ft 430 kts 234°
2026-05-06 20:21 43.80834 52.96348 32073 ft 430 kts 234°
2026-05-06 20:22 43.77340 52.89690 32070 ft 429 kts 234°
2026-05-06 20:22 43.74409 52.84114 32075 ft 429 kts 234°
2026-05-06 20:23 43.70906 52.77467 32076 ft 428 kts 234°
2026-05-06 20:23 43.67395 52.70817 32078 ft 428 kts 234°
2026-05-06 20:24 43.63896 52.64224 32078 ft 427 kts 234°
2026-05-06 20:24 43.60360 52.57615 32082 ft 427 kts 234°
2026-05-06 20:25 43.56822 52.51018 32084 ft 427 kts 234°
2026-05-06 20:25 43.53298 52.44454 32085 ft 427 kts 233°
2026-05-06 20:26 43.49776 52.37907 32089 ft 426 kts 233°
2026-05-06 20:26 43.46255 52.31374 32090 ft 426 kts 233°
2026-05-06 20:27 43.42723 52.24836 32089 ft 426 kts 233°
2026-05-06 20:27 43.39180 52.18292 32088 ft 426 kts 233°
2026-05-06 20:28 43.35615 52.11722 32096 ft 426 kts 233°
2026-05-06 20:28 43.32092 52.05244 32094 ft 426 kts 233°
2026-05-06 20:29 43.28541 51.98730 32091 ft 426 kts 233°
2026-05-06 20:29 43.24990 51.92229 32095 ft 426 kts 233°
2026-05-06 20:30 43.19627 51.82439 32097 ft 426 kts 233°
2026-05-06 20:31 43.16077 51.75976 32097 ft 426 kts 233°
2026-05-06 20:31 43.12506 51.69490 32098 ft 426 kts 233°
2026-05-06 20:32 43.08942 51.63029 32098 ft 426 kts 233°
2026-05-06 20:32 43.05372 51.56571 32101 ft 425 kts 233°
2026-05-06 20:33 43.01814 51.50151 32098 ft 425 kts 233°
2026-05-06 20:33 42.98232 51.43700 32102 ft 425 kts 233°
2026-05-06 20:34 42.94649 51.37261 32104 ft 425 kts 233°
2026-05-06 20:34 42.91073 51.30849 32100 ft 425 kts 233°
2026-05-06 20:35 42.87501 51.24459 32101 ft 425 kts 233°
2026-05-06 20:35 42.83895 51.18020 32104 ft 425 kts 233°
2026-05-06 20:36 42.80314 51.11641 32104 ft 425 kts 233°
2026-05-06 20:36 42.76715 51.05242 32104 ft 425 kts 233°
2026-05-06 20:37 42.73130 50.98883 32107 ft 425 kts 233°
2026-05-06 20:37 42.69518 50.92490 32110 ft 425 kts 233°
2026-05-06 20:38 42.65917 50.86129 32109 ft 425 kts 233°
2026-05-06 20:38 42.62287 50.79731 32111 ft 425 kts 233°
2026-05-06 20:39 42.58699 50.73421 32110 ft 425 kts 233°
2026-05-06 20:39 42.55085 50.67076 32114 ft 425 kts 233°
2026-05-06 20:40 42.51472 50.60749 32113 ft 425 kts 233°
2026-05-06 20:40 42.47840 50.54398 32115 ft 425 kts 233°
2026-05-06 20:41 42.44221 50.48086 32117 ft 425 kts 233°
2026-05-06 20:41 42.40696 50.41683 32120 ft 425 kts 235°
2026-05-06 20:42 42.37291 50.35157 32122 ft 425 kts 235°
2026-05-06 20:42 42.33872 50.28625 32120 ft 425 kts 235°
2026-05-06 20:43 42.30440 50.22129 32122 ft 425 kts 234°
2026-05-06 20:43 42.27000 50.15655 32123 ft 425 kts 234°
2026-05-06 20:44 42.23549 50.09178 32125 ft 425 kts 234°
2026-05-06 20:44 42.20091 50.02704 32130 ft 425 kts 234°
2026-05-06 20:45 42.16649 49.96269 32129 ft 425 kts 234°
2026-05-06 20:45 42.13181 49.89802 32131 ft 425 kts 234°
2026-05-06 20:46 42.09722 49.83363 32129 ft 425 kts 234°
2026-05-06 20:46 42.06257 49.76928 32131 ft 425 kts 234°
2026-05-06 20:47 42.02807 49.70534 32132 ft 425 kts 234°
2026-05-06 20:47 41.99317 49.64079 32133 ft 425 kts 234°
2026-05-06 20:48 41.95849 49.57679 32131 ft 425 kts 234°
2026-05-06 20:48 41.92373 49.51276 32131 ft 424 kts 234°
2026-05-06 20:49 41.88890 49.44875 32133 ft 424 kts 234°
2026-05-06 20:49 41.85419 49.38507 32136 ft 424 kts 234°
2026-05-06 20:50 41.81939 49.32137 32135 ft 424 kts 234°
2026-05-06 20:50 41.78549 49.25670 32134 ft 424 kts 236°
2026-05-06 20:51 41.75306 49.19040 32137 ft 424 kts 237°
2026-05-06 20:51 41.72060 49.12434 32140 ft 424 kts 236°
2026-05-06 20:52 41.68786 49.05850 32139 ft 424 kts 236°
2026-05-06 20:52 41.65506 48.99290 32141 ft 424 kts 236°
2026-05-06 20:53 41.62238 48.92767 32140 ft 424 kts 236°
2026-05-06 20:53 41.58940 48.86197 32145 ft 424 kts 236°
2026-05-06 20:54 41.55659 48.79673 32149 ft 424 kts 236°
2026-05-06 20:54 41.52360 48.73133 32153 ft 424 kts 235°
2026-05-06 20:55 41.48855 48.66830 32158 ft 425 kts 232°
2026-05-06 20:55 41.45272 48.60581 32157 ft 425 kts 233°
2026-05-06 20:56 41.41729 48.54289 32158 ft 425 kts 233°
2026-05-06 20:56 41.38250 48.47916 32164 ft 425 kts 234°
2026-05-06 20:57 41.34778 48.41506 32164 ft 426 kts 234°
2026-05-06 20:57 41.31313 48.35140 32156 ft 426 kts 233°
2026-05-06 20:58 41.27825 48.28761 32164 ft 426 kts 233°
2026-05-06 20:58 41.24347 48.22418 32154 ft 427 kts 233°
2026-05-06 20:59 41.20851 48.16050 32148 ft 428 kts 233°
2026-05-06 20:59 41.17340 48.09668 32146 ft 428 kts 233°
2026-05-06 21:00 41.13836 48.03262 32156 ft 426 kts 237°
2026-05-06 21:00 41.12593 47.99707 32154 ft 431 kts 251°
2026-05-06 21:00 41.11966 47.95803 32175 ft 436 kts 259°
2026-05-06 21:00 41.11820 47.91765 32149 ft 440 kts 270°
2026-05-06 21:01 41.12339 47.87738 32194 ft 444 kts 276°
2026-05-06 21:01 41.13684 47.79726 32164 ft 448 kts 277°
2026-05-06 21:02 41.15022 47.71651 32153 ft 447 kts 277°
2026-05-06 21:02 41.16306 47.63559 32165 ft 447 kts 276°
2026-05-06 21:03 41.17550 47.55532 32185 ft 448 kts 276°
2026-05-06 21:03 41.18806 47.47372 32183 ft 448 kts 276°
2026-05-06 21:04 41.20040 47.39329 32190 ft 448 kts 276°
2026-05-06 21:04 41.21281 47.31213 32196 ft 448 kts 276°
2026-05-06 21:05 41.22512 47.23122 32197 ft 449 kts 276°
2026-05-06 21:05 41.23746 47.14957 32206 ft 448 kts 276°
2026-05-06 21:06 41.24960 47.06893 32213 ft 448 kts 276°
2026-05-06 21:06 41.26174 46.98781 32227 ft 449 kts 276°
2026-05-06 21:07 41.27387 46.90637 32232 ft 449 kts 276°
2026-05-06 21:07 41.28599 46.82465 32236 ft 449 kts 276°
2026-05-06 21:08 41.29799 46.74333 32244 ft 450 kts 276°
2026-05-06 21:08 41.30951 46.66201 32230 ft 450 kts 276°
2026-05-06 21:09 41.32091 46.57974 32250 ft 450 kts 276°
2026-05-06 21:09 41.33225 46.49770 32253 ft 451 kts 276°
2026-05-06 21:10 41.34356 46.41578 32234 ft 452 kts 276°
2026-05-06 21:10 41.35484 46.33371 32230 ft 452 kts 276°
2026-05-06 21:11 41.36615 46.25092 32236 ft 453 kts 276°
2026-05-06 21:11 41.37731 46.16881 32224 ft 453 kts 276°
2026-05-06 21:12 41.38850 46.08598 32238 ft 454 kts 276°
2026-05-06 21:12 41.39968 46.00275 32221 ft 455 kts 276°
2026-05-06 21:13 41.41070 45.92025 32214 ft 455 kts 276°
2026-05-06 21:13 41.42170 45.83747 32225 ft 455 kts 276°
2026-05-06 21:14 41.43091 45.76780 32226 ft 455 kts 276°
2026-05-06 21:14 41.44175 45.68532 32228 ft 456 kts 276°
2026-05-06 21:15 41.45267 45.60172 32223 ft 456 kts 276°
2026-05-06 21:15 41.46344 45.51881 32229 ft 456 kts 276°
2026-05-06 21:16 41.47424 45.43526 32219 ft 456 kts 276°
2026-05-06 21:16 41.48454 45.35180 32216 ft 455 kts 274°
2026-05-06 21:17 41.49167 45.26801 32221 ft 455 kts 272°
2026-05-06 21:17 41.49822 45.18462 32226 ft 455 kts 272°
2026-05-06 21:18 41.50488 45.10079 32221 ft 455 kts 273°
2026-05-06 21:18 41.51165 45.01643 32229 ft 455 kts 273°
2026-05-06 21:19 41.51833 44.93315 32234 ft 455 kts 272°
2026-05-06 21:19 41.52500 44.84882 32232 ft 455 kts 272°
2026-05-06 21:20 41.53156 44.76517 32222 ft 455 kts 272°
2026-05-06 21:20 41.53811 44.68090 32225 ft 455 kts 272°
2026-05-06 21:21 41.54455 44.59727 32220 ft 455 kts 272°
2026-05-06 21:21 41.55094 44.51330 32233 ft 456 kts 272°
2026-05-06 21:22 41.55731 44.42893 32228 ft 456 kts 272°
2026-05-06 21:22 41.56361 44.34466 32233 ft 456 kts 272°
2026-05-06 21:23 41.57216 44.26048 32240 ft 460 kts 280°
2026-05-06 21:23 41.59274 44.17918 32228 ft 466 kts 290°
2026-05-06 21:24 41.62311 44.10222 32236 ft 469 kts 295°
2026-05-06 21:24 41.65481 44.02583 32249 ft 470 kts 295°
2026-05-06 21:25 41.68608 43.94959 32245 ft 470 kts 295°
2026-05-06 21:25 41.71718 43.87269 32244 ft 471 kts 294°
2026-05-06 21:26 41.74835 43.79515 32255 ft 471 kts 294°
2026-05-06 21:26 41.77922 43.71815 32253 ft 472 kts 295°
2026-05-06 21:27 41.81045 43.64008 32255 ft 472 kts 295°
2026-05-06 21:27 41.84130 43.56281 32255 ft 473 kts 295°
2026-05-06 21:28 41.87229 43.48494 32257 ft 474 kts 295°
2026-05-06 21:28 41.90335 43.40668 32272 ft 474 kts 295°
2026-05-06 21:29 41.93412 43.32897 32261 ft 474 kts 295°
2026-05-06 21:29 41.96517 43.25032 32268 ft 474 kts 295°
2026-05-06 21:30 41.99594 43.17219 32265 ft 476 kts 295°
2026-05-06 21:30 42.02688 43.09341 32267 ft 476 kts 295°
2026-05-06 21:31 42.05352 43.01305 32260 ft 471 kts 282°
2026-05-06 21:31 42.05906 42.92596 32262 ft 467 kts 262°
2026-05-06 21:32 42.04979 42.83936 32259 ft 468 kts 259°
2026-05-06 21:32 42.03514 42.70975 32258 ft 468 kts 260°
2026-05-06 21:33 42.02576 42.62295 32257 ft 469 kts 261°
2026-05-06 21:33 42.01647 42.53591 32260 ft 469 kts 261°
2026-05-06 21:34 42.00721 42.44945 32262 ft 470 kts 261°
2026-05-06 21:34 41.99776 42.36215 32264 ft 471 kts 261°
2026-05-06 21:35 41.98825 42.27506 32255 ft 471 kts 261°
2026-05-06 21:35 41.97872 42.18838 32265 ft 471 kts 261°
2026-05-06 21:36 41.96903 42.10083 32263 ft 472 kts 260°
2026-05-06 21:36 41.95930 42.01367 32264 ft 472 kts 260°
2026-05-06 21:37 41.94954 41.92673 32266 ft 472 kts 260°
2026-05-06 21:37 41.93968 41.83946 32262 ft 473 kts 260°
2026-05-06 21:38 41.92974 41.75222 32263 ft 473 kts 260°
2026-05-06 21:38 41.91972 41.66487 32267 ft 473 kts 260°
2026-05-06 21:39 41.90960 41.57730 32265 ft 474 kts 260°
2026-05-06 21:39 41.89947 41.49016 32265 ft 475 kts 260°
2026-05-06 21:40 41.88921 41.40252 32262 ft 475 kts 260°
2026-05-06 21:40 41.87894 41.31540 32263 ft 475 kts 260°
2026-05-06 21:41 41.86849 41.22731 32262 ft 475 kts 260°
2026-05-06 21:41 41.85808 41.14012 32259 ft 476 kts 260°
2026-05-06 21:42 41.84756 41.05272 32259 ft 477 kts 260°
2026-05-06 21:42 41.83692 40.96479 32256 ft 477 kts 260°
2026-05-06 21:43 41.82625 40.87721 32257 ft 477 kts 260°
2026-05-06 21:43 41.81551 40.78950 32255 ft 478 kts 260°
2026-05-06 21:44 41.80473 40.70126 32256 ft 478 kts 262°
2026-05-06 21:44 41.80188 40.61233 32263 ft 480 kts 273°
2026-05-06 21:45 41.80878 40.52308 32260 ft 481 kts 276°
2026-05-06 21:45 41.81635 40.43442 32256 ft 481 kts 276°
2026-05-06 21:46 41.82364 40.34540 32258 ft 481 kts 276°
2026-05-06 21:46 41.83064 40.25620 32258 ft 482 kts 276°
2026-05-06 21:47 41.83753 40.16651 32259 ft 483 kts 276°
2026-05-06 21:47 41.84436 40.07676 32256 ft 483 kts 276°
2026-05-06 21:48 41.85110 39.98736 32256 ft 484 kts 276°
2026-05-06 21:48 41.85779 39.89775 32254 ft 484 kts 276°
2026-05-06 21:49 41.86443 39.80783 32255 ft 485 kts 276°
2026-05-06 21:49 41.87099 39.71801 32256 ft 486 kts 276°
2026-05-06 21:50 41.87755 39.62725 32255 ft 486 kts 276°
2026-05-06 21:50 41.88398 39.53730 32253 ft 487 kts 276°
2026-05-06 21:51 41.89036 39.44701 32251 ft 486 kts 276°
2026-05-06 21:51 41.89670 39.35635 32253 ft 487 kts 276°
2026-05-06 21:52 41.90292 39.26621 32256 ft 487 kts 276°
2026-05-06 21:52 41.90912 39.17550 32256 ft 487 kts 276°
2026-05-06 21:53 41.91522 39.08514 32255 ft 487 kts 276°
2026-05-06 21:53 41.92125 38.99469 32255 ft 488 kts 275°
2026-05-06 21:54 41.92722 38.90399 32256 ft 488 kts 275°
2026-05-06 21:54 41.93313 38.81330 32255 ft 488 kts 275°
2026-05-06 21:55 41.93900 38.72198 32254 ft 488 kts 275°
2026-05-06 21:55 41.94476 38.63120 32257 ft 488 kts 275°
2026-05-06 21:56 41.95043 38.54069 32255 ft 489 kts 275°
2026-05-06 21:56 41.95609 38.44925 32256 ft 489 kts 275°
2026-05-06 21:57 41.96164 38.35853 32259 ft 489 kts 275°
2026-05-06 21:57 41.96713 38.26738 32258 ft 490 kts 275°
2026-05-06 21:58 41.97255 38.17636 32258 ft 490 kts 275°
2026-05-06 21:58 41.97790 38.08506 32259 ft 490 kts 275°
2026-05-06 21:59 41.98321 37.99348 32257 ft 490 kts 275°
2026-05-06 21:59 41.98840 37.90247 32258 ft 490 kts 275°
2026-05-06 22:00 41.99355 37.81106 32259 ft 490 kts 275°
2026-05-06 22:00 41.99859 37.72015 32258 ft 489 kts 275°
2026-05-06 22:01 42.00357 37.62911 32257 ft 489 kts 275°
2026-05-06 22:01 42.00848 37.53803 32253 ft 489 kts 275°
2026-05-06 22:02 42.01334 37.44659 32259 ft 489 kts 275°
2026-05-06 22:02 42.01812 37.35509 32264 ft 489 kts 275°
2026-05-06 22:03 42.02277 37.26466 32254 ft 488 kts 275°
2026-05-06 22:03 42.02739 37.17351 32261 ft 488 kts 275°
2026-05-06 22:04 42.03195 37.08220 32255 ft 488 kts 275°
2026-05-06 22:04 42.03642 36.99116 32255 ft 488 kts 275°
2026-05-06 22:05 42.04082 36.90004 32254 ft 488 kts 275°
2026-05-06 22:05 42.04514 36.80909 32257 ft 488 kts 275°
2026-05-06 22:06 42.04941 36.71771 32255 ft 489 kts 275°
2026-05-06 22:06 42.05359 36.62665 32252 ft 489 kts 275°
2026-05-06 22:07 42.05770 36.53539 32247 ft 489 kts 275°
2026-05-06 22:07 42.06176 36.44387 32255 ft 489 kts 274°
2026-05-06 22:08 42.06506 36.36820 32249 ft 489 kts 274°
2026-05-06 22:08 42.06962 36.26145 32250 ft 489 kts 274°
2026-05-06 22:09 42.07284 36.18488 32245 ft 489 kts 274°
2026-05-06 22:09 42.07660 36.09374 32247 ft 490 kts 274°
2026-05-06 22:10 42.08030 36.00216 32241 ft 490 kts 274°
2026-05-06 22:10 42.08392 35.91080 32246 ft 490 kts 274°
2026-05-06 22:11 42.08749 35.81894 32241 ft 490 kts 274°
2026-05-06 22:11 42.09095 35.72806 32247 ft 489 kts 274°
2026-05-06 22:12 42.09436 35.63641 32233 ft 489 kts 274°
2026-05-06 22:12 42.09770 35.54479 32239 ft 489 kts 274°
2026-05-06 22:13 42.10096 35.45347 32236 ft 489 kts 274°
2026-05-06 22:13 42.10413 35.36246 32238 ft 488 kts 274°
2026-05-06 22:14 42.10725 35.27100 32236 ft 488 kts 274°
2026-05-06 22:14 42.11030 35.17931 32234 ft 488 kts 274°
2026-05-06 22:15 42.11324 35.08859 32229 ft 487 kts 274°
2026-05-06 22:15 42.11613 34.99740 32233 ft 487 kts 274°
2026-05-06 22:16 42.11894 34.90629 32227 ft 486 kts 274°
2026-05-06 22:16 42.12168 34.81547 32233 ft 486 kts 274°
2026-05-06 22:17 42.12434 34.72472 32225 ft 486 kts 274°
2026-05-06 22:17 42.12692 34.63410 32230 ft 485 kts 274°
2026-05-06 22:18 42.12944 34.54317 32225 ft 485 kts 274°
2026-05-06 22:18 42.13188 34.45251 32228 ft 485 kts 275°
2026-05-06 22:19 42.13426 34.36147 32220 ft 484 kts 275°
2026-05-06 22:19 42.13654 34.27114 32228 ft 484 kts 275°
2026-05-06 22:20 42.13875 34.18107 32223 ft 483 kts 275°
2026-05-06 22:20 42.14092 34.09008 32223 ft 482 kts 275°
2026-05-06 22:21 42.14298 34.00037 32218 ft 482 kts 275°
2026-05-06 22:21 42.14498 33.91010 32226 ft 482 kts 275°
2026-05-06 22:22 42.14693 33.81946 32219 ft 482 kts 275°
2026-05-06 22:22 42.14879 33.72910 32221 ft 482 kts 276°
2026-05-06 22:23 42.15057 33.63924 32221 ft 481 kts 276°
2026-05-06 22:23 42.15230 33.54891 32225 ft 481 kts 276°
2026-05-06 22:24 42.15394 33.45906 32216 ft 481 kts 276°
2026-05-06 22:24 42.15552 33.36882 32217 ft 480 kts 276°
2026-05-06 22:25 42.15702 33.27924 32216 ft 480 kts 276°
2026-05-06 22:25 42.15845 33.18938 32217 ft 480 kts 276°
2026-05-06 22:26 42.15982 33.09941 32213 ft 480 kts 276°
2026-05-06 22:26 42.16112 33.00937 32214 ft 480 kts 276°
2026-05-06 22:27 42.16234 32.91939 32213 ft 480 kts 276°
2026-05-06 22:27 42.16349 32.82951 32209 ft 480 kts 276°
2026-05-06 22:28 42.16458 32.73999 32210 ft 479 kts 276°
2026-05-06 22:28 42.16577 32.65034 32223 ft 478 kts 277°
2026-05-06 22:29 42.17502 32.56231 32212 ft 470 kts 289°
2026-05-06 22:29 42.19219 32.47762 32214 ft 470 kts 290°
2026-05-06 22:30 42.20960 32.39283 32211 ft 470 kts 290°
2026-05-06 22:30 42.22678 32.30738 32215 ft 470 kts 289°
2026-05-06 22:31 42.24365 32.22220 32210 ft 470 kts 289°
2026-05-06 22:31 42.26033 32.13734 32212 ft 470 kts 289°
2026-05-06 22:32 42.27713 32.05156 32210 ft 470 kts 289°
2026-05-06 22:32 42.29376 31.96635 32217 ft 470 kts 289°
2026-05-06 22:33 42.31029 31.88127 32215 ft 470 kts 289°
2026-05-06 22:33 42.32691 31.79536 32216 ft 471 kts 289°
2026-05-06 22:34 42.33515 31.75265 32094 ft 471 kts 289°
2026-05-06 22:34 42.34335 31.71003 32130 ft 469 kts 288°
2026-05-06 22:34 42.35962 31.62513 32210 ft 468 kts 288°
2026-05-06 22:35 42.37597 31.53952 32214 ft 468 kts 288°
2026-05-06 22:35 42.39211 31.45463 32216 ft 468 kts 288°
2026-05-06 22:36 42.40832 31.36899 32221 ft 468 kts 288°
2026-05-06 22:36 42.42432 31.28405 32219 ft 468 kts 288°
2026-05-06 22:37 42.44034 31.19865 32218 ft 468 kts 288°
2026-05-06 22:37 42.45627 31.11335 32221 ft 467 kts 288°
2026-05-06 22:38 42.47219 31.02772 32222 ft 467 kts 287°
2026-05-06 22:38 42.48797 30.94246 32220 ft 467 kts 287°
2026-05-06 22:39 42.50372 30.85699 32220 ft 467 kts 287°
2026-05-06 22:39 42.51938 30.77162 32225 ft 467 kts 287°
2026-05-06 22:40 42.53494 30.68638 32222 ft 467 kts 287°
2026-05-06 22:40 42.55047 30.60096 32217 ft 467 kts 287°
2026-05-06 22:41 42.57366 30.47256 32225 ft 467 kts 287°
2026-05-06 22:42 42.58899 30.38729 32229 ft 466 kts 287°
2026-05-06 22:42 42.60554 30.30247 32231 ft 463 kts 292°
2026-05-06 22:43 42.63373 30.22448 32226 ft 459 kts 304°
2026-05-06 22:43 42.67167 30.15472 32230 ft 457 kts 310°
2026-05-06 22:44 42.71071 30.08709 32229 ft 456 kts 310°
2026-05-06 22:44 42.74963 30.01911 32227 ft 456 kts 310°
2026-05-06 22:45 42.78834 29.95071 32226 ft 456 kts 309°
2026-05-06 22:45 42.82675 29.88243 32228 ft 455 kts 309°
2026-05-06 22:46 42.86536 29.81361 32229 ft 454 kts 309°
2026-05-06 22:46 42.90349 29.74550 32220 ft 453 kts 309°
2026-05-06 22:46 42.92251 29.71147 32363 ft 454 kts 310°
2026-05-06 22:47 42.94188 29.67679 32295 ft 459 kts 310°
2026-05-06 22:47 42.96120 29.64217 32102 ft 461 kts 309°
2026-05-06 22:47 42.98060 29.60732 32151 ft 454 kts 309°
2026-05-06 22:48 43.01839 29.53932 32237 ft 451 kts 309°
2026-05-06 22:48 43.05644 29.47076 32231 ft 452 kts 309°
2026-05-06 22:49 43.09418 29.40258 32227 ft 451 kts 309°
2026-05-06 22:49 43.13193 29.33423 32222 ft 451 kts 309°
2026-05-06 22:50 43.16980 29.26549 32228 ft 451 kts 309°
2026-05-06 22:50 43.20751 29.19689 32229 ft 450 kts 309°
2026-05-06 22:51 43.24513 29.12828 32225 ft 450 kts 309°
2026-05-06 22:51 43.28254 29.05990 32225 ft 449 kts 309°
2026-05-06 22:52 43.31999 28.99131 32220 ft 449 kts 309°
2026-05-06 22:52 43.35746 28.92250 32224 ft 449 kts 309°
2026-05-06 22:53 43.39462 28.85411 32222 ft 448 kts 309°
2026-05-06 22:53 43.43205 28.78505 32218 ft 448 kts 309°
2026-05-06 22:54 43.46893 28.71686 32219 ft 448 kts 309°
2026-05-06 22:54 43.50603 28.64809 32218 ft 447 kts 309°
2026-05-06 22:55 43.54323 28.57898 32212 ft 447 kts 309°
2026-05-06 22:55 43.57999 28.51053 32210 ft 447 kts 309°
2026-05-06 22:56 43.61703 28.44140 32210 ft 447 kts 309°
2026-05-06 22:56 43.65379 28.37262 32205 ft 447 kts 309°
2026-05-06 22:57 43.69082 28.30318 32200 ft 446 kts 309°
2026-05-06 22:57 43.72747 28.23430 32192 ft 446 kts 309°
2026-05-06 22:58 43.76414 28.16519 32192 ft 446 kts 309°
2026-05-06 22:58 43.80091 28.09575 32189 ft 446 kts 309°
2026-05-06 22:59 43.83732 28.02681 32191 ft 446 kts 309°
2026-05-06 22:59 43.87386 27.95748 32190 ft 446 kts 309°
2026-05-06 23:00 43.91049 27.88780 32184 ft 446 kts 308°
2026-05-06 23:00 43.94685 27.81848 32183 ft 446 kts 308°
2026-05-06 23:01 43.98345 27.74854 32179 ft 446 kts 308°
2026-05-06 23:01 44.01962 27.67924 32178 ft 446 kts 308°
2026-05-06 23:02 44.05588 27.60959 32177 ft 445 kts 308°
2026-05-06 23:02 44.09208 27.53992 32176 ft 445 kts 308°
2026-05-06 23:03 44.12238 27.48148 32174 ft 445 kts 308°
2026-05-06 23:03 44.15838 27.41186 32168 ft 445 kts 308°
2026-05-06 23:04 44.20048 27.33024 32161 ft 445 kts 308°
2026-05-06 23:04 44.23053 27.27187 32162 ft 445 kts 308°
2026-05-06 23:05 44.26654 27.20174 32156 ft 445 kts 308°
2026-05-06 23:05 44.30247 27.13158 32157 ft 444 kts 308°
2026-05-06 23:06 44.33844 27.06119 32154 ft 444 kts 308°
2026-05-06 23:06 44.37417 26.99111 32153 ft 444 kts 308°
2026-05-06 23:07 44.40994 26.92076 32154 ft 444 kts 307°
2026-05-06 23:07 44.44570 26.85027 32154 ft 444 kts 307°
2026-05-06 23:08 44.48154 26.77944 32150 ft 444 kts 307°
2026-05-06 23:08 44.51702 26.70915 32152 ft 445 kts 307°
2026-05-06 23:09 44.55276 26.63816 32152 ft 445 kts 307°
2026-05-06 23:09 44.58850 26.56704 32153 ft 445 kts 307°
2026-05-06 23:10 44.62296 26.49471 32157 ft 446 kts 304°
2026-05-06 23:10 44.65582 26.42165 32168 ft 446 kts 304°
2026-05-06 23:11 44.68909 26.34761 32167 ft 447 kts 304°
2026-05-06 23:11 44.72242 26.27388 32169 ft 447 kts 304°
2026-05-06 23:12 44.75565 26.20047 32169 ft 447 kts 304°
2026-05-06 23:12 44.78914 26.12636 32173 ft 448 kts 303°
2026-05-06 23:13 44.82235 26.05266 32169 ft 448 kts 303°
2026-05-06 23:13 44.85582 25.97819 32174 ft 449 kts 303°
2026-05-06 23:14 44.88920 25.90370 32181 ft 449 kts 303°
2026-05-06 23:14 44.92235 25.82955 32173 ft 450 kts 303°
2026-05-06 23:15 44.95580 25.75453 32177 ft 451 kts 303°
2026-05-06 23:15 44.98915 25.67952 32180 ft 451 kts 303°
2026-05-06 23:16 45.02246 25.60440 32182 ft 451 kts 303°
2026-05-06 23:16 45.05556 25.52956 32196 ft 452 kts 302°
2026-05-06 23:17 45.08888 25.45405 32196 ft 452 kts 302°
2026-05-06 23:17 45.12218 25.37837 32184 ft 453 kts 302°
2026-05-06 23:18 45.15539 25.30269 32197 ft 453 kts 302°
2026-05-06 23:18 45.18865 25.22669 32199 ft 453 kts 302°
2026-05-06 23:19 45.22184 25.15064 32198 ft 454 kts 302°
2026-05-06 23:19 45.25487 25.07475 32187 ft 454 kts 302°
2026-05-06 23:20 45.28811 24.99818 32193 ft 455 kts 302°
2026-05-06 23:20 45.32115 24.92187 32191 ft 455 kts 301°
2026-05-06 23:21 45.35436 24.84496 32187 ft 456 kts 301°
2026-05-06 23:21 45.38734 24.76838 32182 ft 456 kts 301°
2026-05-06 23:22 45.42049 24.69117 32196 ft 457 kts 301°
2026-05-06 23:22 45.45370 24.61363 32180 ft 457 kts 301°
2026-05-06 23:23 45.48665 24.53646 32174 ft 457 kts 301°
2026-05-06 23:23 45.51951 24.45931 32171 ft 458 kts 301°
2026-05-06 23:24 45.55273 24.38107 32160 ft 458 kts 300°
2026-05-06 23:24 45.58557 24.30352 32154 ft 458 kts 300°
2026-05-06 23:25 45.61840 24.22582 32129 ft 458 kts 300°
2026-05-06 23:25 45.65033 24.14701 32123 ft 458 kts 297°
2026-05-06 23:26 45.68002 24.06660 32133 ft 458 kts 296°
2026-05-06 23:26 45.70943 23.98575 32113 ft 458 kts 296°
2026-05-06 23:27 45.73893 23.90488 32127 ft 459 kts 296°
2026-05-06 23:27 45.76844 23.82416 32130 ft 459 kts 296°
2026-05-06 23:28 45.79812 23.74289 32133 ft 459 kts 296°
2026-05-06 23:28 45.82767 23.66174 32130 ft 460 kts 296°
2026-05-06 23:29 45.85713 23.58058 32140 ft 460 kts 296°
2026-05-06 23:29 45.88666 23.49895 32125 ft 460 kts 296°
2026-05-06 23:30 45.91605 23.41745 32124 ft 461 kts 296°
2026-05-06 23:30 45.94565 23.33515 32114 ft 461 kts 296°
2026-05-06 23:31 45.97489 23.25359 32120 ft 462 kts 296°
2026-05-06 23:31 46.00424 23.17147 32117 ft 462 kts 296°
2026-05-06 23:32 46.03349 23.08936 32117 ft 462 kts 296°
2026-05-06 23:32 46.06274 23.00703 32116 ft 462 kts 295°
2026-05-06 23:33 46.09197 22.92449 32116 ft 462 kts 295°
2026-05-06 23:33 46.12107 22.84206 32116 ft 463 kts 295°
2026-05-06 23:34 46.15023 22.75920 32110 ft 463 kts 295°
2026-05-06 23:34 46.17926 22.67647 32109 ft 463 kts 295°
2026-05-06 23:35 46.20837 22.59323 32105 ft 463 kts 295°
2026-05-06 23:35 46.23718 22.51060 32097 ft 463 kts 295°
2026-05-06 23:36 46.26606 22.42751 32091 ft 462 kts 295°
2026-05-06 23:36 46.29479 22.34458 32095 ft 463 kts 295°
2026-05-06 23:37 46.32363 22.26106 32085 ft 463 kts 294°
2026-05-06 23:37 46.35226 22.17792 32077 ft 463 kts 294°
2026-05-06 23:38 46.38094 22.09435 32072 ft 463 kts 294°
2026-05-06 23:38 46.40941 22.01114 32069 ft 463 kts 294°
2026-05-06 23:39 46.43806 21.92715 32051 ft 463 kts 294°
2026-05-06 23:39 46.46653 21.84339 32068 ft 463 kts 294°
2026-05-06 23:40 46.49479 21.75998 32061 ft 463 kts 294°
2026-05-06 23:40 46.52316 21.67601 32047 ft 463 kts 294°
2026-05-06 23:41 46.55158 21.59159 32042 ft 463 kts 294°
2026-05-06 23:41 46.57977 21.50761 32049 ft 463 kts 294°
2026-05-06 23:42 46.60792 21.42346 32041 ft 463 kts 294°
2026-05-06 23:42 46.63594 21.33943 32043 ft 463 kts 294°
2026-05-06 23:43 46.66393 21.25522 32038 ft 462 kts 294°
2026-05-06 23:43 46.69189 21.17083 32041 ft 462 kts 293°
2026-05-06 23:44 46.71969 21.08666 32040 ft 462 kts 293°
2026-05-06 23:44 46.74751 21.00212 32040 ft 462 kts 293°
2026-05-06 23:45 46.77514 20.91790 32040 ft 462 kts 293°
2026-05-06 23:45 46.80289 20.83306 32041 ft 462 kts 293°
2026-05-06 23:46 46.83049 20.74837 32043 ft 462 kts 293°
2026-05-06 23:46 46.85801 20.66364 32048 ft 462 kts 293°
2026-05-06 23:47 46.88543 20.57895 32045 ft 461 kts 293°
2026-05-06 23:47 46.91272 20.49439 32044 ft 462 kts 293°
2026-05-06 23:48 46.93996 20.40973 32042 ft 461 kts 293°
2026-05-06 23:48 46.96720 20.32474 32041 ft 461 kts 293°
2026-05-06 23:49 46.99437 20.23971 32042 ft 461 kts 293°
2026-05-06 23:49 47.02143 20.15473 32044 ft 461 kts 293°
2026-05-06 23:50 47.04842 20.06972 32039 ft 461 kts 293°
2026-05-06 23:50 47.08885 19.94179 32041 ft 460 kts 292°
2026-05-06 23:51 47.11556 19.85693 32042 ft 460 kts 292°
2026-05-06 23:51 47.14231 19.77166 32043 ft 460 kts 292°
2026-05-06 23:52 47.16909 19.68601 32042 ft 459 kts 292°
2026-05-06 23:52 47.19567 19.60069 32040 ft 459 kts 292°
2026-05-06 23:53 47.22218 19.51532 32042 ft 459 kts 292°
2026-05-06 23:53 47.24858 19.42999 32040 ft 459 kts 292°
2026-05-06 23:54 47.27494 19.34453 32038 ft 459 kts 292°
2026-05-06 23:54 47.30132 19.25868 32044 ft 460 kts 291°
2026-05-06 23:55 47.32761 19.17289 32040 ft 460 kts 291°
2026-05-06 23:55 47.35244 19.08634 32044 ft 458 kts 288°
2026-05-06 23:56 47.37466 18.99825 32031 ft 457 kts 287°
2026-05-06 23:56 47.39644 18.91060 32034 ft 457 kts 287°
2026-05-06 23:57 47.41851 18.82217 32032 ft 457 kts 287°
2026-05-06 23:57 47.44046 18.73442 32026 ft 457 kts 287°
2026-05-06 23:58 47.46233 18.64678 32025 ft 456 kts 287°
2026-05-06 23:58 47.48433 18.55826 32023 ft 456 kts 287°
2026-05-06 23:59 47.50607 18.47039 32014 ft 456 kts 286°
2026-05-06 23:59 47.52775 18.38248 32013 ft 455 kts 286°
2026-05-07 00:00 47.54572 18.30929 32006 ft 455 kts 286°
2026-05-07 00:00 47.56729 18.22113 31996 ft 454 kts 286°
2026-05-07 00:01 47.58857 18.13383 31994 ft 453 kts 286°
2026-05-07 00:01 47.60997 18.04569 31999 ft 457 kts 285°
2026-05-07 00:02 47.62078 18.00097 32281 ft 462 kts 285°
2026-05-07 00:02 47.63158 17.95625 32885 ft 459 kts 285°
2026-05-07 00:02 47.64228 17.91195 33597 ft 454 kts 285°
2026-05-07 00:02 47.65289 17.86797 34222 ft 451 kts 285°
2026-05-07 00:03 47.66338 17.82429 34655 ft 450 kts 285°
2026-05-07 00:03 47.67375 17.78098 35041 ft 451 kts 285°
2026-05-07 00:03 47.68424 17.73710 35428 ft 451 kts 285°
2026-05-07 00:03 47.69470 17.69328 35858 ft 450 kts 285°
2026-05-07 00:04 47.70512 17.64950 36275 ft 449 kts 285°
2026-05-07 00:04 47.71552 17.60576 36683 ft 449 kts 285°
2026-05-07 00:04 47.72588 17.56210 37057 ft 449 kts 285°
2026-05-07 00:04 47.73625 17.51832 37429 ft 448 kts 285°
2026-05-07 00:05 47.74658 17.47460 37784 ft 449 kts 285°
2026-05-07 00:05 47.75691 17.43077 37842 ft 450 kts 285°
2026-05-07 00:05 47.77764 17.34259 37863 ft 451 kts 285°
2026-05-07 00:06 47.79816 17.25500 37862 ft 450 kts 284°
2026-05-07 00:06 47.81872 17.16689 37865 ft 450 kts 284°
2026-05-07 00:07 47.83932 17.07928 37867 ft 451 kts 285°
2026-05-07 00:07 47.86135 16.99144 37865 ft 453 kts 286°
2026-05-07 00:08 47.88363 16.90358 37861 ft 454 kts 285°
2026-05-07 00:08 47.90573 16.81551 37863 ft 454 kts 285°
2026-05-07 00:09 47.92759 16.72759 37858 ft 455 kts 285°
2026-05-07 00:09 47.94949 16.63901 37862 ft 456 kts 285°
2026-05-07 00:10 47.97137 16.55015 37864 ft 456 kts 285°
2026-05-07 00:10 47.99318 16.46123 37846 ft 456 kts 285°
2026-05-07 00:11 48.01490 16.37235 37855 ft 456 kts 285°
2026-05-07 00:11 48.03657 16.28328 37862 ft 457 kts 285°
2026-05-07 00:12 48.05824 16.19389 37867 ft 457 kts 285°
2026-05-07 00:12 48.07985 16.10436 37864 ft 457 kts 284°
2026-05-07 00:13 48.10136 16.01490 37864 ft 457 kts 284°
2026-05-07 00:13 48.12281 15.92530 37869 ft 458 kts 284°
2026-05-07 00:14 48.14411 15.83597 37873 ft 458 kts 284°
2026-05-07 00:14 48.16546 15.74605 37872 ft 459 kts 284°
2026-05-07 00:15 48.18678 15.65596 37873 ft 458 kts 284°
2026-05-07 00:15 48.20800 15.56590 37882 ft 458 kts 284°
2026-05-07 00:16 48.22910 15.47591 37885 ft 458 kts 284°
2026-05-07 00:16 48.25017 15.38572 37885 ft 457 kts 284°
2026-05-07 00:17 48.27109 15.29579 37880 ft 456 kts 284°
2026-05-07 00:17 48.29180 15.20642 37890 ft 455 kts 283°
2026-05-07 00:18 48.31255 15.11645 37889 ft 455 kts 283°
2026-05-07 00:18 48.33317 15.02667 37897 ft 454 kts 283°
2026-05-07 00:19 48.35368 14.93700 37900 ft 454 kts 283°
2026-05-07 00:19 48.37416 14.84710 37897 ft 454 kts 283°
2026-05-07 00:20 48.39456 14.75712 37897 ft 455 kts 283°
2026-05-07 00:20 48.41494 14.66691 37901 ft 456 kts 283°
2026-05-07 00:21 48.43533 14.57621 37910 ft 457 kts 283°
2026-05-07 00:21 48.45567 14.48540 37908 ft 458 kts 283°
2026-05-07 00:22 48.47599 14.39427 37920 ft 459 kts 283°
2026-05-07 00:22 48.49625 14.30303 37919 ft 460 kts 282°
2026-05-07 00:23 48.51647 14.21151 37925 ft 461 kts 282°
2026-05-07 00:23 48.53657 14.12017 37927 ft 462 kts 282°
2026-05-07 00:24 48.55674 14.02814 37935 ft 462 kts 282°
2026-05-07 00:24 48.57691 13.93567 37917 ft 464 kts 282°
2026-05-07 00:25 48.59703 13.84300 37922 ft 465 kts 282°
2026-05-07 00:25 48.61718 13.74975 37924 ft 466 kts 282°
2026-05-07 00:26 48.63724 13.65656 37924 ft 467 kts 282°
2026-05-07 00:26 48.65722 13.56315 37926 ft 467 kts 282°
2026-05-07 00:27 48.67640 13.46966 37925 ft 467 kts 281°
2026-05-07 00:27 48.69531 13.37571 37924 ft 467 kts 281°
2026-05-07 00:28 48.71420 13.28166 37922 ft 467 kts 281°
2026-05-07 00:28 48.73313 13.18735 37919 ft 468 kts 281°
2026-05-07 00:29 48.75199 13.09311 37914 ft 468 kts 281°
2026-05-07 00:30 48.78954 12.90403 37912 ft 469 kts 281°
2026-05-07 00:30 48.80820 12.80938 37912 ft 469 kts 281°
2026-05-07 00:31 48.82680 12.71459 37912 ft 469 kts 281°
2026-05-07 00:31 48.84535 12.61952 37912 ft 469 kts 281°
2026-05-07 00:32 48.86371 12.52503 37907 ft 469 kts 281°
2026-05-07 00:32 48.88208 12.43000 37908 ft 469 kts 281°
2026-05-07 00:33 48.90038 12.33481 37896 ft 470 kts 281°
2026-05-07 00:33 48.91864 12.23936 37902 ft 470 kts 281°
2026-05-07 00:34 48.93679 12.14404 37916 ft 469 kts 281°
2026-05-07 00:34 48.95487 12.04862 37896 ft 470 kts 281°
2026-05-07 00:35 48.97293 11.95279 37901 ft 470 kts 281°
2026-05-07 00:35 48.99085 11.85722 37894 ft 470 kts 281°
2026-05-07 00:36 49.00860 11.76206 37896 ft 470 kts 281°
2026-05-07 00:36 49.02639 11.66618 37897 ft 470 kts 281°
2026-05-07 00:37 49.04408 11.57039 37905 ft 470 kts 281°
2026-05-07 00:37 49.06175 11.47412 37900 ft 470 kts 281°
2026-05-07 00:38 49.07921 11.37856 37907 ft 470 kts 281°
2026-05-07 00:38 49.09671 11.28229 37908 ft 471 kts 281°
2026-05-07 00:39 49.11410 11.18604 37908 ft 471 kts 281°
2026-05-07 00:39 49.13139 11.08995 37902 ft 471 kts 281°
2026-05-07 00:40 49.14866 10.99339 37909 ft 472 kts 281°
2026-05-07 00:40 49.16586 10.89671 37908 ft 472 kts 281°
2026-05-07 00:41 49.18303 10.79973 37906 ft 472 kts 280°
2026-05-07 00:41 49.20012 10.70278 37904 ft 473 kts 281°
2026-05-07 00:42 49.21745 10.60590 37902 ft 472 kts 281°
2026-05-07 00:42 49.23485 10.50890 37902 ft 472 kts 281°
2026-05-07 00:43 49.25208 10.41202 37903 ft 472 kts 281°
2026-05-07 00:43 49.26922 10.31498 37895 ft 472 kts 281°
2026-05-07 00:44 49.28625 10.21796 37894 ft 472 kts 281°
2026-05-07 00:44 49.30324 10.12065 37891 ft 472 kts 281°
2026-05-07 00:45 49.32012 10.02345 37891 ft 472 kts 281°
2026-05-07 00:45 49.33685 9.92660 37885 ft 473 kts 281°
2026-05-07 00:46 49.35362 9.82896 37886 ft 473 kts 281°
2026-05-07 00:46 49.37031 9.73125 37886 ft 474 kts 281°
2026-05-07 00:47 49.38694 9.63330 37887 ft 475 kts 281°
2026-05-07 00:47 49.40352 9.53514 37889 ft 476 kts 281°
2026-05-07 00:48 49.42007 9.43661 37888 ft 476 kts 281°
2026-05-07 00:48 49.43653 9.33803 37883 ft 477 kts 281°
2026-05-07 00:49 49.45017 9.25594 37891 ft 477 kts 281°
2026-05-07 00:49 49.46636 9.15697 37891 ft 477 kts 279°
2026-05-07 00:50 49.47890 9.04032 37893 ft 476 kts 275°
2026-05-07 00:50 49.48670 8.95585 37902 ft 476 kts 275°
2026-05-07 00:51 49.49600 8.85567 37907 ft 476 kts 276°
2026-05-07 00:51 49.50551 8.75483 37910 ft 476 kts 276°
2026-05-07 00:52 49.51503 8.65408 37919 ft 476 kts 276°
2026-05-07 00:52 49.52448 8.55315 37912 ft 476 kts 276°
2026-05-07 00:53 49.53382 8.45235 37915 ft 476 kts 276°
2026-05-07 00:53 49.54309 8.35127 37913 ft 476 kts 276°
2026-05-07 00:54 49.55226 8.25023 37912 ft 476 kts 276°
2026-05-07 00:54 49.56134 8.14912 37913 ft 476 kts 276°
2026-05-07 00:55 49.57031 8.04834 37909 ft 476 kts 276°
2026-05-07 00:55 49.57917 7.94771 37911 ft 476 kts 276°
2026-05-07 00:56 49.58800 7.84626 37913 ft 476 kts 276°
2026-05-07 00:56 49.59669 7.74546 37901 ft 476 kts 276°
2026-05-07 00:57 49.60536 7.64400 37904 ft 476 kts 276°
2026-05-07 00:57 49.61391 7.54276 37913 ft 476 kts 276°
2026-05-07 00:58 49.62232 7.44201 37917 ft 476 kts 276°
2026-05-07 00:58 49.63072 7.34044 37911 ft 476 kts 276°
2026-05-07 00:59 49.64310 7.18860 37912 ft 476 kts 276°
2026-05-07 01:00 49.65121 7.08771 37916 ft 475 kts 275°
2026-05-07 01:00 49.65925 6.98654 37911 ft 475 kts 275°
2026-05-07 01:01 49.66722 6.88513 37898 ft 475 kts 275°
2026-05-07 01:01 49.67509 6.78386 37923 ft 475 kts 275°
2026-05-07 01:02 49.68282 6.68324 37918 ft 474 kts 275°
2026-05-07 01:02 49.69050 6.58201 37927 ft 474 kts 275°
2026-05-07 01:03 49.69809 6.48081 37939 ft 474 kts 275°
2026-05-07 01:03 49.70559 6.37965 37936 ft 474 kts 275°
2026-05-07 01:04 49.71300 6.27848 37934 ft 474 kts 275°
2026-05-07 01:04 49.72029 6.17763 37946 ft 474 kts 275°
2026-05-07 01:05 49.72754 6.07630 37937 ft 474 kts 275°
2026-05-07 01:05 49.73467 5.97541 37949 ft 473 kts 275°
2026-05-07 01:06 49.73564 5.87388 37952 ft 472 kts 262°
2026-05-07 01:06 49.72118 5.77552 37957 ft 471 kts 250°
2026-05-07 01:07 49.69835 5.68032 37969 ft 471 kts 249°
2026-05-07 01:07 49.67542 5.58549 37971 ft 471 kts 249°
2026-05-07 01:08 49.65313 5.49117 37973 ft 471 kts 250°
2026-05-07 01:08 49.63066 5.39585 37429 ft 479 kts 250°
2026-05-07 01:08 49.61927 5.34721 36737 ft 480 kts 251°
2026-05-07 01:09 49.60878 5.29853 35982 ft 478 kts 252°
2026-05-07 01:09 49.60009 5.24918 35180 ft 477 kts 258°
2026-05-07 01:09 49.59459 5.19877 34336 ft 477 kts 263°
2026-05-07 01:09 49.59141 5.14778 33329 ft 478 kts 267°
2026-05-07 01:10 49.59119 5.09710 32312 ft 478 kts 271°
2026-05-07 01:10 49.59195 5.04518 31304 ft 478 kts 271°
2026-05-07 01:10 49.59281 4.99463 30351 ft 477 kts 271°
2026-05-07 01:10 49.59354 4.94382 29591 ft 470 kts 271°
2026-05-07 01:11 49.59409 4.89382 28825 ft 463 kts 271°
2026-05-07 01:11 49.59453 4.84464 28128 ft 456 kts 271°
2026-05-07 01:11 49.59490 4.79661 28002 ft 439 kts 271°
2026-05-07 01:11 49.59521 4.75007 27557 ft 430 kts 270°
2026-05-07 01:12 49.59544 4.70403 27094 ft 428 kts 270°
2026-05-07 01:12 49.59563 4.65807 26603 ft 427 kts 270°
2026-05-07 01:12 49.59580 4.61235 26140 ft 426 kts 270°
2026-05-07 01:12 49.59595 4.56741 25664 ft 424 kts 270°
2026-05-07 01:13 49.59610 4.52210 25197 ft 421 kts 270°
2026-05-07 01:13 49.59623 4.47714 24733 ft 417 kts 270°
2026-05-07 01:13 49.59635 4.43257 24273 ft 415 kts 270°
2026-05-07 01:13 49.59645 4.38825 23819 ft 412 kts 270°
2026-05-07 01:14 49.59653 4.34416 23327 ft 410 kts 270°
2026-05-07 01:14 49.59659 4.30040 22811 ft 407 kts 270°
2026-05-07 01:14 49.59664 4.25692 22342 ft 405 kts 270°
2026-05-07 01:14 49.59667 4.21357 21887 ft 403 kts 270°
2026-05-07 01:15 49.59670 4.17057 21435 ft 401 kts 270°
2026-05-07 01:15 49.59670 4.12777 20987 ft 399 kts 270°
2026-05-07 01:15 49.59592 4.08530 20523 ft 395 kts 262°
2026-05-07 01:15 49.58807 4.04487 20092 ft 396 kts 243°
2026-05-07 01:16 49.57352 4.00909 19695 ft 393 kts 236°
2026-05-07 01:16 49.55828 3.97423 19245 ft 392 kts 237°
2026-05-07 01:16 49.54336 3.93981 18813 ft 390 kts 237°
2026-05-07 01:16 49.52851 3.90514 18378 ft 387 kts 237°
2026-05-07 01:17 49.51382 3.87050 17906 ft 384 kts 237°
2026-05-07 01:17 49.49930 3.83614 17439 ft 381 kts 237°
2026-05-07 01:17 49.48487 3.80203 16993 ft 379 kts 237°
2026-05-07 01:17 49.47199 3.76708 16544 ft 373 kts 250°
2026-05-07 01:18 49.46550 3.72847 16188 ft 375 kts 258°
2026-05-07 01:18 49.45969 3.68934 15759 ft 374 kts 257°
2026-05-07 01:18 49.45337 3.65072 15339 ft 372 kts 256°
2026-05-07 01:18 49.44687 3.61238 14920 ft 368 kts 256°
2026-05-07 01:19 49.44039 3.57444 14506 ft 366 kts 255°
2026-05-07 01:19 49.43395 3.53665 14103 ft 364 kts 255°
2026-05-07 01:19 49.42755 3.49907 13688 ft 363 kts 255°
2026-05-07 01:19 49.41980 3.46262 13228 ft 359 kts 243°
2026-05-07 01:20 49.40489 3.43209 12820 ft 358 kts 223°
2026-05-07 01:20 49.38598 3.40831 12436 ft 357 kts 219°
2026-05-07 01:20 49.36646 3.38483 12028 ft 356 kts 218°
2026-05-07 01:20 49.34701 3.36148 11617 ft 353 kts 218°
2026-05-07 01:21 49.32788 3.33844 11230 ft 346 kts 219°
2026-05-07 01:21 49.30920 3.31584 10841 ft 339 kts 219°
2026-05-07 01:21 49.29090 3.29361 10470 ft 333 kts 219°
2026-05-07 01:21 49.27296 3.27178 10109 ft 327 kts 219°
2026-05-07 01:22 49.25540 3.25038 9888 ft 316 kts 219°
2026-05-07 01:22 49.23859 3.22990 9789 ft 301 kts 220°
2026-05-07 01:22 49.22249 3.21027 9608 ft 290 kts 220°
2026-05-07 01:22 49.20690 3.19128 9316 ft 283 kts 220°
2026-05-07 01:23 49.19152 3.17255 8945 ft 280 kts 220°
2026-05-07 01:23 49.17644 3.15420 8510 ft 279 kts 220°
2026-05-07 01:23 49.16130 3.13578 8099 ft 278 kts 220°
2026-05-07 01:23 49.14620 3.11743 7695 ft 275 kts 219°
2026-05-07 01:24 49.13122 3.09924 7312 ft 273 kts 219°
2026-05-07 01:24 49.11637 3.08122 6937 ft 272 kts 219°
2026-05-07 01:24 49.10161 3.06333 6539 ft 270 kts 219°
2026-05-07 01:24 49.08694 3.04557 6132 ft 269 kts 219°
2026-05-07 01:25 49.07234 3.02790 5719 ft 267 kts 219°
2026-05-07 01:25 49.05797 3.01052 5293 ft 266 kts 219°
2026-05-07 01:25 49.04349 2.99303 4877 ft 265 kts 219°
2026-05-07 01:25 49.02906 2.97563 4449 ft 264 kts 219°
2026-05-07 01:26 49.01702 2.95533 4069 ft 258 kts 245°
2026-05-07 01:26 49.01241 2.92891 4049 ft 259 kts 263°
2026-05-07 01:26 49.01062 2.90156 4005 ft 260 kts 266°
2026-05-07 01:26 49.00923 2.87405 3908 ft 263 kts 266°
2026-05-07 01:27 49.00781 2.84610 3524 ft 263 kts 266°
2026-05-07 01:27 49.00636 2.81856 3183 ft 259 kts 266°
2026-05-07 01:27 49.00492 2.79154 2857 ft 252 kts 266°
2026-05-07 01:27 49.00351 2.76520 2490 ft 246 kts 266°
2026-05-07 01:28 49.00219 2.74088 2157 ft 212 kts 266°
2026-05-07 01:28 49.00110 2.72023 1898 ft 184 kts 267°
2026-05-07 01:28 49.00013 2.70190 1653 ft 164 kts 267°
2026-05-07 01:28 48.99926 2.68546 1438 ft 153 kts 267°
2026-05-07 01:29 48.99842 2.66942 1226 ft 151 kts 266°
2026-05-07 01:29 48.99759 2.65385 1021 ft 148 kts 266°
2026-05-07 01:29 48.99677 2.63828 819 ft 147 kts 266°
2026-05-07 01:29 48.99592 2.62281 622 ft 147 kts 266°
2026-05-07 01:30 48.99504 2.60735 482 ft 146 kts 265°
2026-05-07 01:30 48.99427 2.59188 366 ft 147 kts 266°
2026-05-07 01:30 48.99351 2.57721 338 ft 120 kts 265°
2026-05-07 01:30 48.99314 2.56916 344 ft 48 kts 273°
2026-05-07 01:31 48.99455 2.56545 357 ft 37 kts 283°
2026-05-07 01:31 48.99453 2.56171 349 ft 33 kts 278°
2026-05-07 01:31 48.99578 2.56049 357 ft 31 kts 357°
2026-05-07 01:31 48.99850 2.55995 354 ft 35 kts 332°
2026-05-07 01:32 48.99949 2.55644 334 ft 44 kts 290°
2026-05-07 01:32 48.99969 2.55159 338 ft 46 kts 266°
2026-05-07 01:32 48.99945 2.54696 334 ft 43 kts 266°
2026-05-07 01:32 48.99920 2.54248 337 ft 42 kts 265°
2026-05-07 01:33 48.99899 2.53817 336 ft 40 kts 263°
2026-05-07 01:33 48.99721 2.53538 336 ft 37 kts 219°
2026-05-07 01:33 48.99483 2.53458 338 ft 36 kts 176°
2026-05-07 01:33 48.99256 2.53460 335 ft 18 kts 208°
2026-05-07 01:34 48.99233 2.53357 336 ft 12 kts 254°
2026-05-07 01:34 48.99185 2.53253 333 ft 12 kts 221°
2026-05-07 01:34 48.99157 2.53220 336 ft 0 kts 217°